GFSNGP_850_spd_057.txt.gz
Wind_Speed
17 18 13 16 15 13 18 14 18 21 25 23 15 13 8 7 11 17 16 19 31 28 30 31 32 37 41 38 40 40 42 42 47 49 47 44 44 43 44 41 40 37 34 32
18 16 15 18 19 18 21 20 20 24 26 21 23 17 16 9 11 5 8 8 11 19 22 25 29 33 37 43 41 42 43 48 44 43 45 47 46 47 44 43 42 40 38 36
19 17 18 20 21 20 22 23 22 22 23 20 19 10 19 15 11 4 11 10 9 10 15 22 28 28 33 41 42 40 44 42 43 43 46 48 47 46 47 45 43 43 40 39
14 18 19 16 13 16 23 24 24 25 26 26 28 18 27 5 6 9 10 13 13 13 14 17 21 25 29 31 41 43 44 42 44 43 45 46 46 48 47 45 44 44 43 42
13 14 18 19 1 9 8 13 17 22 24 33 33 33 19 24 5 9 11 14 15 15 16 18 19 23 23 31 35 43 43 47 46 48 44 45 48 49 48 46 46 45 44 43
11 16 20 16 11 8 5 13 11 18 23 23 21 14 10 11 9 11 12 14 17 19 20 21 24 24 27 31 36 42 47 50 48 46 45 46 47 47 49 48 47 43 44 44
16 14 12 12 8 9 5 3 30 23 17 14 11 13 13 14 15 13 13 14 18 19 23 23 23 25 31 34 39 46 41 40 42 45 45 43 41 41 43 47 37 44 38 41
15 9 16 8 7 5 6 22 27 26 14 15 15 14 15 13 16 17 16 15 10 15 17 19 22 27 33 37 41 37 36 39 40 41 40 37 39 39 38 37 39 35 37 33
5 5 3 4 10 14 13 21 37 22 12 12 12 11 12 13 14 15 16 15 12 9 6 6 10 17 27 33 32 34 36 38 37 37 38 35 37 37 33 34 31 33 29 30
8 2 11 16 13 10 16 30 35 14 9 9 10 9 12 10 16 20 20 22 20 14 12 12 2 8 14 22 26 29 33 34 35 36 37 37 32 30 29 29 29 27 29 27
5 7 17 4 7 12 19 26 12 8 7 8 9 9 9 9 15 16 21 24 25 22 22 19 13 9 10 15 24 27 30 32 34 33 35 37 30 28 29 26 27 27 26 24
3 11 11 12 16 13 19 9 7 3 3 5 5 7 6 7 13 15 19 24 24 27 21 19 16 17 10 14 17 25 28 31 31 31 32 31 31 33 31 31 30 28 26 26
6 13 10 10 7 13 15 8 5 1 9 2 2 2 4 8 12 9 18 17 22 23 23 18 17 16 15 18 14 15 23 27 28 30 30 32 32 28 29 32 26 29 27 26
14 14 10 11 9 13 14 8 9 8 5 6 3 5 5 4 5 9 15 17 16 17 19 21 19 17 18 18 22 10 14 23 24 24 31 28 28 26 24 24 20 15 8 4
12 11 14 12 14 15 12 12 12 13 12 8 9 6 10 12 13 10 11 13 13 14 17 18 20 19 16 18 22 18 11 12 17 19 19 24 25 19 19 24 18 16 15 13
12 15 14 15 16 18 16 15 15 16 14 11 12 13 9 9 8 8 10 13 15 15 14 15 15 17 17 13 12 17 16 11 12 12 14 19 16 21 11 17 15 13 21 27
14 14 16 19 20 19 18 18 17 16 17 15 14 12 11 14 16 16 14 13 11 11 13 12 11 9 12 13 11 13 13 10 8 3 4 14 14 15 16 20 26 29 17 23
6 9 11 15 17 18 18 21 21 19 20 17 17 20 22 21 18 20 22 20 15 11 14 13 9 7 6 7 11 8 10 10 5 5 2 3 2 13 19 26 20 21 21 25
6 9 11 13 14 14 16 15 20 25 24 21 20 21 21 16 17 19 18 24 26 23 21 17 13 8 5 8 3 6 9 8 6 6 4 3 3 5 8 11 10 10 18 21
3 4 9 9 10 12 12 13 15 17 19 16 17 16 15 16 19 17 19 22 24 24 24 20 14 12 9 6 1 7 6 5 7 10 2 2 4 4 3 4 10 11 12 11
3 4 5 10 11 13 12 10 11 10 11 14 15 15 19 21 19 20 20 23 22 21 26 27 22 16 11 6 5 9 9 11 18 14 7 6 6 9 6 5 6 10 17 19
5 4 3 6 10 11 12 11 11 11 9 10 12 9 12 17 18 20 22 21 20 23 26 26 25 20 13 8 3 4 9 9 8 7 7 8 8 9 10 11 10 10 9 8
3 4 5 6 8 9 11 11 10 10 10 12 12 11 12 16 17 21 22 20 20 24 26 27 25 22 17 14 11 8 4 4 6 7 9 10 10 10 11 12 12 13 16 15
3 2 3 2 4 6 9 9 8 9 9 10 11 12 12 14 17 17 16 19 20 27 32 33 34 35 33 31 25 19 15 12 10 8 7 6 8 10 11 12 13 14 16 16
5 3 3 3 3 5 5 8 5 8 7 9 11 10 12 13 14 15 16 17 18 22 25 27 31 30 31 33 32 31 28 24 20 15 14 13 12 11 9 9 11 13 14 14
5 1 2 3 4 5 7 8 10 9 10 10 10 9 9 10 12 12 13 15 15 18 18 21 24 24 24 24 25 27 29 25 24 24 23 20 18 17 15 13 12 10 11 12
5 4 2 2 3 5 6 6 8 9 9 8 9 8 7 7 8 9 11 12 13 15 17 18 21 21 22 20 20 18 17 22 24 22 21 22 21 20 19 18 17 17 15 13

GFSNGP_850_spd_060.txt.gz
Wind_Speed
21 24 20 18 17 18 20 23 20 19 22 22 9 21 20 28 29 15 19 15 26 25 23 43 46 47 46 42 43 43 44 45 46 47 46 43 44 44 41 48 44 41 38 36
20 22 21 21 19 18 20 20 22 18 21 20 21 8 27 29 32 42 11 3 8 7 27 30 26 44 45 45 43 44 44 46 42 43 43 44 44 43 43 43 45 44 41 38
18 17 21 21 20 19 20 20 18 18 19 18 15 16 11 20 23 30 35 9 10 11 11 14 27 16 42 44 43 42 45 43 43 43 45 46 45 44 43 44 44 44 42 40
11 14 15 15 21 21 24 24 20 20 21 22 23 26 25 24 18 25 35 22 14 14 17 9 5 38 33 38 41 41 43 42 43 45 46 47 47 46 45 43 45 44 44 42
8 13 16 23 11 8 10 12 9 18 17 31 25 31 29 16 16 15 17 34 22 15 16 19 18 13 6 33 39 44 41 45 44 46 46 47 48 48 47 45 44 45 44 42
10 14 16 18 8 10 11 10 17 18 19 27 33 14 4 18 13 18 19 24 29 23 18 17 20 24 21 15 32 42 38 45 45 43 47 48 49 47 46 46 48 46 45 43
13 11 14 5 5 9 10 5 19 18 19 23 16 17 17 13 14 14 16 21 26 22 23 19 20 23 26 30 25 35 40 37 39 43 45 45 44 44 44 45 44 44 42 42
10 11 14 4 8 12 10 16 20 20 19 24 25 24 21 17 16 16 19 22 20 20 16 17 18 22 27 31 37 29 32 40 41 42 43 44 43 43 43 42 43 39 41 39
4 4 14 8 6 11 14 16 21 22 21 23 28 21 19 16 15 14 16 17 17 11 9 9 14 11 16 32 30 36 27 37 40 40 43 41 43 43 43 42 42 42 38 39
10 3 15 16 12 12 13 15 20 22 24 24 27 21 19 15 13 13 17 18 18 12 6 10 13 9 9 16 29 32 39 36 40 41 42 43 40 43 44 43 44 39 39 34
5 7 18 3 18 19 19 20 18 21 23 23 17 16 14 13 11 8 13 16 17 16 9 8 9 7 7 13 18 29 34 37 38 39 41 42 43 39 43 42 42 43 37 35
3 15 12 18 19 18 20 19 24 19 14 13 13 10 10 10 10 6 9 15 20 19 15 11 14 8 3 8 12 17 23 30 33 34 36 40 42 38 39 37 37 36 33 27
4 13 10 13 16 16 16 16 14 13 12 7 7 7 8 10 7 3 6 10 15 18 16 13 13 14 5 3 13 18 18 24 28 33 33 37 38 38 40 39 35 36 32 34
3 9 9 9 11 16 13 13 10 13 10 4 3 5 7 15 8 4 2 7 11 13 12 13 15 13 14 4 2 12 20 26 27 30 33 36 37 34 37 43 42 40 36 34
3 2 3 8 15 19 13 10 10 10 14 11 5 3 7 9 10 3 3 6 7 11 11 10 15 10 12 12 11 12 8 18 18 26 32 33 36 38 31 32 28 27 29 31
6 10 7 4 4 19 23 17 15 13 12 14 11 8 5 7 7 6 5 4 7 8 11 10 11 10 11 14 12 15 15 13 14 9 19 28 27 35 31 29 27 25 23 20
8 7 11 14 15 8 20 23 17 17 13 14 12 12 10 10 11 12 10 9 9 10 12 12 10 9 8 10 13 10 17 25 11 10 5 17 8 15 12 9 14 19 15 11
1 7 5 8 10 10 6 14 23 18 17 15 13 14 14 14 14 10 16 16 16 16 16 15 9 7 6 5 7 10 17 23 18 8 9 9 8 13 12 8 10 11 12 21
4 1 4 6 6 6 9 7 7 12 14 12 12 13 16 19 14 13 16 19 21 21 23 21 11 6 4 3 4 7 10 16 11 19 14 6 9 10 9 9 9 8 4 7
3 2 1 4 8 6 5 6 6 8 8 10 12 16 14 16 16 16 18 18 21 24 22 22 16 8 6 0 2 1 6 1 5 13 11 13 15 9 6 6 9 13 16 17
2 1 3 4 6 8 11 7 7 7 8 9 8 9 9 10 19 19 19 22 24 21 20 18 18 15 10 6 3 4 3 3 3 3 5 6 3 4 7 9 9 13 18 19
3 3 2 5 7 9 10 8 10 8 6 6 8 9 13 14 20 22 22 20 20 21 25 26 25 20 16 11 6 2 1 3 4 5 8 7 5 4 4 4 4 7 9 8
8 4 3 3 6 7 8 7 7 8 7 7 7 9 13 16 16 19 20 21 23 28 35 35 33 30 24 21 19 14 11 7 5 8 8 5 4 6 6 7 7 8 11 10
3 4 8 2 3 3 6 8 7 7 11 8 13 11 10 15 19 18 23 18 22 26 27 28 32 34 39 38 34 27 21 18 17 15 13 11 8 7 5 6 8 8 9 12
2 5 4 5 4 7 6 6 6 9 11 11 11 11 11 14 13 14 18 21 23 22 26 26 30 33 29 30 38 36 32 28 23 20 19 19 18 17 14 12 10 7 8 10
5 6 4 1 4 6 7 9 10 9 9 12 11 9 10 10 11 11 11 11 17 15 14 18 19 20 23 22 22 28 31 31 27 25 23 22 20 19 18 17 15 13 11 9
5 5 6 2 1 3 5 6 6 8 9 9 10 8 7 7 8 10 10 10 9 12 12 15 17 17 19 20 22 20 23 26 27 24 22 22 22 21 20 19 18 17 15 14

GFSNGP_850_spd_063.txt.gz
Wind_Speed
10 14 15 20 20 20 14 8 3 9 15 6 8 8 16 20 23 28 21 16 30 45 42 28 49 44 39 50 51 50 48 50 50 46 44 43 44 46 46 47 44 41 41 41
10 12 15 18 19 21 17 13 12 11 15 10 22 26 21 28 21 25 28 37 25 28 41 34 41 46 33 47 51 52 49 50 47 45 43 43 43 43 42 44 48 45 44 43
5 9 12 11 12 16 17 12 9 10 10 15 17 19 24 29 26 25 22 16 25 34 11 29 22 19 36 33 43 51 53 52 50 46 44 42 43 42 42 41 42 48 45 44
4 4 4 8 10 15 16 13 16 11 16 15 17 20 34 34 29 31 30 26 24 29 20 16 10 26 35 41 32 33 44 51 51 48 45 43 41 44 42 41 41 43 47 46
4 4 10 13 11 4 7 5 15 14 13 22 29 15 17 35 29 27 29 26 26 26 25 29 20 19 25 25 35 33 30 51 52 50 47 46 44 42 42 41 42 41 42 44
2 4 5 3 5 11 9 4 14 17 17 20 23 6 6 34 31 32 24 28 28 28 25 27 19 12 12 27 41 39 37 47 51 49 49 48 46 44 42 42 42 41 42 42
5 6 5 7 4 10 3 4 17 17 17 17 5 8 22 24 27 26 26 27 28 25 26 23 13 9 11 23 30 29 26 44 49 49 50 49 47 46 45 44 42 44 43 43
1 6 6 28 8 4 9 18 20 20 18 18 16 17 18 22 24 26 22 26 25 25 25 24 21 21 14 12 25 22 23 27 44 45 47 49 48 48 47 45 45 44 45 45
4 3 7 14 15 15 18 21 23 25 26 22 22 19 19 18 21 23 21 21 23 25 22 21 22 25 27 23 23 23 22 26 27 46 45 45 47 49 48 46 46 45 45 45
6 1 10 23 9 15 19 23 23 24 26 27 26 24 19 18 16 18 21 17 16 18 17 20 20 21 24 27 26 26 26 27 30 36 47 44 47 47 48 48 48 46 45 44
5 8 22 7 20 20 24 22 23 23 23 22 21 25 20 17 15 13 19 16 14 14 15 15 18 17 17 23 24 23 26 29 31 34 43 48 48 47 48 50 49 48 46 43
3 12 10 15 20 21 19 23 21 22 23 19 19 23 18 18 17 14 11 10 15 15 18 15 19 18 17 15 20 18 19 25 31 33 40 49 48 48 45 46 46 45 41 42
5 8 6 10 17 21 24 23 20 20 20 20 16 19 20 18 17 11 9 6 9 15 16 16 18 18 15 12 15 14 16 17 23 29 38 44 46 48 48 40 41 42 40 36
12 8 11 9 8 20 20 15 16 15 12 13 14 14 6 10 13 8 11 8 4 10 15 15 18 18 15 15 6 9 14 22 28 26 30 35 43 43 43 46 42 43 37 37
10 12 14 11 9 13 24 15 14 13 9 15 9 11 6 5 4 0 4 8 10 10 11 12 15 15 15 13 9 7 10 17 27 32 31 34 33 38 40 40 42 41 36 38
4 2 5 7 7 8 13 26 15 14 11 10 17 16 13 12 9 8 8 9 12 14 17 14 14 16 14 12 9 5 5 9 25 28 37 37 38 35 37 38 37 40 40 36
4 1 3 5 7 9 11 14 20 17 15 16 14 15 20 18 16 16 15 11 12 14 16 17 18 16 12 12 9 6 7 7 10 20 28 29 37 34 33 33 32 32 36 34
6 4 2 5 5 10 11 10 11 17 18 15 19 18 20 18 17 17 18 17 15 13 18 20 19 19 16 14 6 3 10 14 11 9 15 22 18 22 21 26 25 28 25 24
6 7 3 3 5 6 7 11 10 10 13 15 18 18 25 24 17 15 14 16 18 19 19 20 18 17 15 11 3 3 0 5 19 16 12 9 14 15 17 17 15 16 16 16
10 8 6 1 3 6 2 7 6 7 10 11 12 15 17 19 19 15 13 16 18 19 18 16 15 14 15 11 4 3 1 4 17 23 23 23 23 23 27 21 14 17 12 8
5 9 4 3 6 5 3 8 3 9 7 9 5 8 14 19 20 18 18 20 25 26 23 20 16 16 17 16 8 5 5 2 7 17 21 20 17 21 19 18 20 21 17 14
6 10 5 6 3 4 2 3 8 3 4 6 5 7 11 14 17 17 23 24 28 31 33 35 29 24 18 14 15 13 14 13 11 10 11 13 14 16 20 22 20 19 21 22
3 3 6 3 5 2 5 4 3 2 5 3 4 5 9 13 19 15 20 23 27 27 29 33 36 37 33 31 27 23 20 18 18 18 17 16 15 14 13 14 19 21 18 16
2 2 5 7 5 2 3 2 8 4 6 9 7 6 7 13 19 21 18 21 23 24 26 30 31 36 39 39 36 32 28 23 23 22 21 18 17 16 17 16 16 16 15 15
5 5 2 4 3 6 1 8 12 12 8 10 8 6 7 9 12 14 15 15 16 16 17 23 27 33 36 37 38 36 31 31 30 27 24 22 21 18 17 16 16 16 16 16
7 9 3 9 3 9 12 13 10 12 13 12 10 6 4 4 11 12 13 13 15 17 11 19 21 25 30 30 32 33 34 33 30 33 32 29 26 24 22 20 18 16 15 13
3 14 5 1 4 5 9 16 12 6 8 9 9 9 8 8 7 5 7 12 16 13 17 18 18 23 24 25 25 25 26 28 30 34 32 31 28 26 25 24 23 21 19 17

GFSNGP_850_spd_069.txt.gz
Wind_Speed
2 2 2 2 4 5 3 4 4 6 5 7 12 12 19 23 28 29 30 22 16 9 6 2 7 9 16 27 29 37 45 49 48 45 41 36 35 32 37 42 43 43 40 38
6 4 5 2 4 5 6 3 2 5 2 6 13 17 21 24 24 25 28 25 21 15 10 7 2 10 15 12 25 30 36 43 43 44 46 42 38 37 35 36 41 45 46 45
3 6 6 5 6 5 2 3 3 5 1 5 6 14 17 21 24 24 25 24 23 18 16 14 10 2 13 19 14 24 29 32 37 40 43 40 37 39 39 39 38 40 46 48
2 4 1 5 3 5 8 5 4 3 5 6 8 6 13 18 20 24 25 24 23 19 15 15 18 13 4 11 21 22 21 33 36 37 41 39 37 38 36 38 40 40 41 43
4 3 5 4 4 4 2 4 3 2 3 8 16 9 10 18 19 18 20 22 22 23 18 18 16 20 14 3 10 15 18 19 34 35 39 38 36 35 34 35 35 38 38 40
3 3 5 5 3 11 5 3 3 4 5 10 15 1 4 18 24 21 17 18 23 21 21 16 15 14 17 12 6 7 12 14 21 27 31 32 30 30 33 36 37 36 36 35
3 4 6 2 9 5 3 2 2 5 6 9 1 9 21 25 25 20 18 17 20 20 20 20 16 13 13 15 12 11 10 9 16 21 19 20 20 25 32 36 41 39 40 38
2 2 7 3 2 3 2 8 8 9 13 15 16 17 23 25 25 22 21 18 16 22 21 20 17 17 12 15 15 16 15 10 11 16 23 19 22 26 32 38 41 44 42 42
6 4 2 1 4 11 13 14 14 15 18 21 22 18 20 25 28 23 21 21 19 21 22 17 18 15 20 16 19 18 21 17 10 16 20 20 22 29 32 37 40 44 44 45
4 4 4 9 16 11 11 16 20 22 22 21 24 22 26 25 25 27 23 21 20 22 22 23 18 17 15 21 26 24 25 28 22 16 16 20 20 25 29 36 40 41 44 46
5 11 14 8 7 8 7 12 20 22 22 24 25 26 25 27 30 31 26 22 22 24 22 22 21 17 18 20 26 31 32 32 32 30 27 19 22 24 31 33 34 38 43 44
5 8 6 10 9 9 12 16 21 24 22 21 23 26 25 29 30 30 27 22 24 26 23 21 20 21 19 22 25 29 37 35 29 29 31 26 23 26 30 31 34 36 36 41
5 5 11 13 15 14 14 16 21 23 19 21 22 22 25 29 28 28 29 28 25 24 26 23 21 20 22 24 24 28 31 30 29 26 28 30 26 23 25 29 33 37 39 37
16 14 13 15 11 10 14 15 18 18 15 16 13 18 12 12 11 17 13 18 22 26 25 24 27 25 24 25 26 26 28 29 30 29 29 33 31 26 23 23 33 36 36 39
19 16 15 13 15 16 17 19 17 18 17 15 14 16 17 12 9 11 11 10 13 20 25 25 28 27 27 29 29 28 28 28 30 29 29 33 36 32 28 29 29 36 38 35
14 16 14 18 17 14 14 16 16 14 16 7 15 16 14 14 15 13 11 11 11 12 14 19 23 27 26 26 27 27 26 26 27 29 30 35 37 36 32 33 33 34 40 41
11 11 17 19 15 12 14 13 13 10 11 9 12 15 18 18 15 14 15 15 16 16 14 15 15 15 15 16 20 21 22 23 24 24 26 33 35 31 29 27 32 36 39 38
15 12 11 11 11 14 14 12 10 9 9 10 11 13 18 19 14 14 13 13 13 13 16 17 19 19 17 18 17 17 17 20 20 21 27 28 30 29 31 33 32 31 35 39
15 13 12 9 8 12 12 13 11 8 6 7 10 12 15 19 15 9 8 13 16 17 16 14 16 18 16 16 17 12 11 14 15 18 21 25 24 25 29 34 34 34 30 32
14 15 13 13 14 15 15 10 9 10 7 6 6 9 11 15 12 10 10 13 17 23 21 16 14 12 11 10 12 8 7 8 8 10 15 18 20 19 18 21 21 23 22 29
19 18 19 10 16 14 10 6 7 9 7 5 3 6 8 10 13 16 17 20 20 22 31 28 22 17 9 5 6 6 6 5 5 4 4 4 7 9 13 17 17 22 28 29
18 19 15 18 15 15 12 9 11 10 7 2 2 4 3 5 8 14 18 18 19 23 19 32 32 22 13 3 4 7 9 7 5 3 7 2 5 7 6 11 28 26 30 28
10 11 11 13 10 13 9 7 11 11 9 4 4 1 3 2 6 9 10 10 19 21 24 23 34 34 25 19 16 14 14 15 14 10 9 11 12 11 12 13 12 18 22 23
9 9 8 7 12 15 12 11 9 7 2 4 6 2 1 2 5 9 14 16 8 11 20 24 27 34 35 36 30 25 22 20 19 18 15 14 17 16 15 14 17 19 18 21
9 12 13 12 10 11 9 14 10 9 4 3 4 5 2 3 7 10 13 13 8 5 8 19 22 29 36 37 37 37 32 28 25 23 23 19 21 21 19 20 21 23 21 21
12 14 17 13 19 15 15 13 10 8 6 2 2 5 4 2 5 11 6 9 8 10 11 11 17 19 25 31 34 36 37 36 32 31 28 28 28 22 20 23 20 22 23 24
2 6 9 11 6 7 14 13 11 6 3 4 3 3 4 2 4 6 5 7 8 8 12 14 16 22 20 26 27 30 31 33 33 35 34 31 32 25 23 24 20 22 24 23

GFSNGP_850_spd_072.txt.gz
Wind_Speed
5 5 3 3 3 1 1 3 3 5 2 3 6 9 15 19 24 27 31 29 23 19 15 8 6 9 16 18 21 27 36 38 40 41 42 43 42 38 34 33 36 37 36 34
2 3 2 4 6 6 4 3 3 6 3 4 5 10 17 21 24 25 25 27 26 22 18 14 6 3 8 14 22 25 28 30 29 33 39 40 42 42 40 38 35 37 40 39
3 2 2 3 1 3 2 3 2 1 0 6 5 9 11 15 18 21 22 23 24 24 21 18 15 7 7 13 16 22 26 27 30 31 33 33 35 39 41 40 39 38 36 39
3 1 3 3 2 5 4 1 1 4 2 4 6 11 1 13 17 19 21 21 21 21 21 18 15 14 11 6 13 18 22 29 30 28 29 28 28 33 36 37 39 40 39 37
3 1 3 1 2 2 4 6 2 2 3 8 15 9 14 8 17 19 19 18 18 19 18 19 17 14 14 11 7 11 19 22 25 29 34 34 32 31 32 32 33 33 37 37
2 3 4 5 3 3 1 4 5 5 5 7 14 3 2 7 20 21 18 18 20 19 18 17 17 15 11 10 8 5 6 11 16 24 31 33 31 31 31 29 29 28 30 31
3 2 5 2 5 2 4 2 1 3 5 6 2 9 26 31 29 25 24 21 19 21 21 20 18 17 14 10 8 9 5 4 6 17 22 26 28 30 28 28 25 25 27 28
3 3 6 1 2 3 0 4 8 10 11 15 18 23 28 32 32 33 29 26 23 22 24 22 18 19 17 15 14 8 8 5 3 7 16 21 20 19 22 26 27 28 30 30
6 4 3 2 4 7 13 11 8 12 15 18 23 25 27 34 37 34 35 30 26 28 25 25 22 20 23 19 17 18 12 11 8 7 8 11 18 28 30 28 32 32 35 32
3 2 7 6 3 3 3 7 7 11 19 19 22 22 25 29 35 38 36 35 31 31 32 29 27 25 24 24 23 20 20 18 16 18 17 14 15 19 24 24 29 34 35 35
4 9 10 14 8 3 2 5 9 15 23 21 20 23 25 29 32 37 37 35 34 33 35 35 29 28 25 27 27 25 23 21 21 20 22 21 20 19 20 27 25 33 37 34
5 10 5 4 4 3 7 9 10 16 24 21 20 21 24 27 30 32 35 36 36 36 34 37 32 28 27 27 27 27 27 26 24 23 23 25 28 28 23 25 32 30 33 35
6 9 6 3 4 6 7 6 11 15 19 21 20 19 20 24 23 24 25 27 28 34 31 33 34 30 28 28 26 27 28 28 29 27 27 23 25 26 30 28 25 33 28 28
21 10 6 5 1 2 5 7 11 14 16 19 19 21 21 22 20 17 17 21 24 25 24 28 32 32 31 32 32 30 30 30 30 32 29 26 25 25 27 29 29 29 27 24
24 19 13 7 6 6 8 12 12 12 12 14 12 13 18 21 20 22 24 24 21 20 21 22 27 33 36 34 34 33 35 36 34 33 34 32 29 29 29 32 29 29 30 27
19 20 16 13 11 10 10 11 11 9 10 13 12 16 18 21 23 21 21 21 23 24 23 22 24 26 31 32 34 35 35 33 33 33 33 33 29 31 30 29 33 30 29 28
12 16 17 16 16 13 11 9 9 10 10 12 11 14 18 22 23 18 18 17 19 19 20 22 25 25 27 29 27 28 28 29 29 29 30 28 30 29 27 29 31 31 29 27
14 7 7 9 8 10 9 9 11 9 10 8 12 14 16 19 21 16 14 14 15 19 22 21 22 22 26 29 28 27 28 26 28 29 27 27 27 27 27 30 32 32 30 28
8 15 14 10 9 8 9 9 11 10 10 9 10 12 14 17 15 12 11 14 17 22 30 28 24 23 25 26 24 27 29 26 26 25 24 26 25 26 27 28 32 31 29 28
12 12 14 17 16 17 14 12 12 8 9 9 9 10 10 13 8 10 14 16 17 20 23 31 29 25 25 19 21 25 25 23 22 21 21 22 20 21 24 25 25 27 30 21
15 19 20 19 19 13 14 13 11 8 7 9 8 8 7 2 6 10 15 21 21 24 24 28 32 30 23 19 18 18 18 18 18 18 16 13 9 10 16 17 17 21 21 23
14 16 17 16 15 15 13 13 10 11 9 8 7 6 6 5 9 12 16 20 17 26 27 29 33 33 23 15 10 10 8 9 10 9 7 7 4 3 6 8 10 15 17 20
17 16 9 12 11 11 10 10 9 10 9 9 7 5 4 5 8 13 17 18 16 13 20 27 32 35 34 23 18 12 7 3 6 6 6 5 7 7 6 5 9 7 12 16
13 10 12 10 11 13 12 8 5 6 7 6 7 5 4 5 5 10 14 12 11 9 16 14 27 31 35 35 28 22 19 15 14 17 18 16 16 15 15 14 16 19 20 22
13 13 14 15 16 21 10 5 10 10 7 2 7 8 5 5 8 12 10 11 9 11 10 16 17 26 28 33 36 34 27 25 23 25 26 25 24 24 24 23 21 23 26 25
13 7 13 11 7 11 11 12 13 11 6 0 3 5 5 8 7 9 5 9 6 10 8 11 16 14 25 26 30 35 36 35 34 32 29 28 27 26 25 25 25 25 25 24
11 8 4 3 4 6 7 11 9 8 5 2 3 2 4 3 1 2 3 5 4 6 7 8 12 17 15 20 21 24 28 32 33 30 31 31 29 28 26 26 25 25 25 21

GFSNGP_850_spd_075.txt.gz
Wind_Speed
9 6 3 1 1 3 4 4 2 9 8 5 5 8 11 14 17 20 23 24 24 23 21 14 4 5 8 13 18 19 21 24 27 28 31 35 39 38 35 32 30 32 34 33
3 4 3 4 5 4 1 4 3 3 6 3 4 4 10 13 15 18 20 21 21 20 20 20 17 9 4 11 16 22 24 25 23 25 29 32 33 34 36 37 36 34 34 36
4 3 0 5 6 6 2 3 4 5 5 6 4 5 7 10 14 16 18 19 21 21 20 19 18 16 12 7 12 15 23 25 26 26 29 29 29 32 34 33 33 36 37 37
5 3 4 5 4 1 2 4 4 5 6 6 3 2 3 5 11 16 17 20 20 20 20 19 18 16 14 10 6 9 13 19 24 27 28 27 28 30 30 30 31 31 35 36
4 6 1 6 2 1 3 4 3 5 2 3 6 2 7 1 12 17 18 18 19 19 19 19 20 19 16 12 10 5 6 14 21 22 26 28 30 29 30 30 29 29 31 34
2 3 6 5 6 2 3 5 4 4 4 7 11 4 5 4 16 19 18 19 22 22 21 20 20 20 18 16 13 11 8 6 11 18 24 22 25 29 31 32 30 28 29 31
4 3 2 3 5 4 5 4 5 3 3 3 4 6 17 20 19 18 20 23 22 23 23 22 22 21 21 18 17 15 12 10 8 8 17 19 23 26 27 27 28 28 30 30
2 4 6 7 5 5 5 4 1 2 3 7 10 14 19 22 22 22 22 23 23 25 25 25 24 23 22 21 20 19 16 14 10 8 6 9 19 18 21 25 27 28 26 29
6 3 3 6 3 3 3 4 5 3 4 7 12 15 17 21 23 23 24 23 23 23 27 29 27 25 25 22 23 24 21 17 18 15 10 7 9 15 22 26 25 23 24 30
2 7 12 10 5 4 5 5 4 2 3 9 13 14 16 17 20 24 25 26 25 24 26 29 30 29 27 24 23 26 27 24 19 19 21 18 15 16 16 19 21 27 31 28
5 6 3 10 10 4 4 4 3 3 4 9 10 12 14 15 17 19 24 25 24 25 25 27 30 32 30 26 24 30 30 28 26 23 19 22 21 21 21 20 17 19 26 27
5 10 6 5 10 13 9 7 7 5 5 8 10 10 12 12 15 21 24 27 23 22 22 22 27 26 26 22 26 29 32 25 26 27 26 24 25 27 22 23 24 20 23 29
4 13 8 10 12 13 12 9 7 7 7 6 9 9 11 14 16 18 23 23 24 28 28 26 28 24 18 23 26 30 32 34 31 30 29 29 28 28 28 24 27 26 24 26
16 15 10 15 9 12 11 9 7 7 8 9 8 5 8 13 17 19 21 20 23 26 29 28 26 24 23 25 25 29 30 35 36 34 31 31 30 30 30 30 30 31 29 28
19 21 6 10 13 12 10 8 7 7 7 7 6 8 10 16 20 22 21 21 23 25 24 26 26 26 24 25 26 28 29 35 37 37 37 35 37 36 33 32 32 31 33 31
7 21 19 15 12 12 11 9 9 8 8 8 8 6 11 16 21 23 20 19 18 19 21 24 27 27 27 28 28 29 31 35 36 37 37 36 35 36 36 34 33 31 33 37
6 13 18 18 16 15 15 11 10 7 8 9 9 8 13 17 18 19 17 17 15 15 20 26 29 26 24 25 26 29 31 31 32 33 33 33 33 34 34 34 35 32 36 35
7 6 10 14 12 13 15 14 12 9 8 7 8 9 11 15 18 15 13 14 15 18 21 24 26 30 28 24 26 28 30 30 31 32 32 32 32 32 33 34 35 37 36 34
11 11 10 11 13 13 13 14 12 8 9 8 9 10 9 11 12 8 11 14 15 18 22 25 26 31 29 25 23 22 23 26 30 32 31 32 32 31 32 33 34 35 35 33
4 8 14 16 16 20 18 16 13 11 11 9 9 10 8 7 3 7 11 12 12 17 22 26 29 33 33 25 22 23 24 25 26 27 29 30 31 31 30 31 31 32 31 32
11 15 17 18 25 22 21 19 18 15 12 11 9 9 8 6 7 9 12 13 15 19 22 26 32 33 33 27 21 16 17 18 20 22 25 28 29 29 27 25 23 25 27 29
9 14 17 16 16 18 19 17 17 15 15 12 9 9 7 4 6 10 14 17 18 18 17 22 28 31 33 27 20 15 12 12 13 15 18 21 22 23 22 20 19 20 21 23
14 18 20 19 17 13 11 14 16 14 15 13 9 9 5 4 5 8 12 15 13 15 12 20 23 27 32 33 26 19 15 13 9 6 6 9 10 12 12 11 11 12 12 13
14 11 13 14 11 9 7 11 16 13 12 11 8 9 6 3 5 6 13 12 8 12 10 17 22 22 26 32 36 33 25 19 17 15 10 5 3 4 6 7 9 11 12 13
11 15 11 10 8 9 7 11 16 10 9 10 9 10 8 7 9 8 11 7 7 11 9 11 18 20 23 26 30 37 36 33 24 18 19 17 14 16 19 18 22 20 19 21
10 7 4 5 4 4 5 4 5 13 10 6 5 5 6 7 7 5 4 9 8 9 9 10 15 16 16 21 22 25 31 36 34 30 21 18 17 17 21 24 30 29 28 27
9 8 8 11 5 1 1 11 14 12 6 4 5 3 1 2 3 4 4 4 6 9 11 11 12 13 15 15 18 18 21 23 32 27 26 23 22 21 22 24 22 24 27 26

GFSNGP_850_spd_078.txt.gz
Wind_Speed
9 8 6 4 4 3 1 5 5 17 16 12 11 11 13 14 15 16 18 20 20 21 22 20 14 7 3 7 4 6 11 16 18 18 19 21 27 32 32 30 28 25 24 26
3 3 3 4 4 3 3 3 6 10 14 11 11 11 12 13 14 16 17 17 18 18 18 19 19 16 11 2 8 11 11 15 15 16 17 19 23 28 28 29 31 31 30 28
4 1 2 8 11 9 6 5 6 9 13 11 10 9 9 11 14 15 15 16 17 16 17 17 18 18 17 12 3 4 5 9 17 18 17 18 19 21 27 30 28 30 32 32
4 6 6 7 4 1 7 7 3 9 10 8 8 7 9 9 10 12 13 14 15 15 16 16 15 17 17 16 14 6 4 6 6 9 16 19 22 22 22 22 25 29 31 33
4 9 4 5 5 6 12 10 3 9 8 7 5 6 9 5 8 9 12 12 12 14 15 15 16 17 17 17 16 16 12 8 9 13 13 13 18 23 23 21 22 24 26 30
4 5 6 10 7 3 2 8 8 7 6 3 2 8 13 3 8 9 10 11 13 14 14 14 16 17 17 16 16 16 17 16 14 9 13 15 17 17 23 24 24 23 23 25
7 5 2 5 6 6 7 6 9 8 5 1 3 7 4 8 9 10 11 12 13 13 13 14 16 17 17 17 16 17 18 17 16 15 12 13 22 20 22 22 22 23 24 25
5 6 8 10 7 6 8 9 8 5 2 2 3 7 10 12 12 12 12 13 13 15 15 14 16 17 17 17 17 18 19 20 19 18 16 14 14 18 20 19 23 23 25 28
4 2 5 12 2 7 4 3 3 2 1 1 4 7 9 10 11 12 14 14 14 15 17 17 16 16 20 20 21 20 21 20 21 21 20 18 16 15 14 16 13 18 21 24
2 8 7 9 7 6 4 3 5 5 3 1 4 6 8 8 9 10 11 13 14 15 15 17 17 18 19 22 22 21 21 22 21 21 22 20 18 15 15 16 14 14 14 20
8 8 4 12 12 10 8 7 6 5 3 2 4 5 7 9 9 9 11 13 13 12 12 15 17 19 18 18 20 22 23 22 22 21 20 21 20 17 19 18 18 21 19 18
4 3 10 2 15 14 12 11 8 5 4 3 3 4 5 7 8 10 12 14 15 14 14 15 17 17 19 20 19 17 19 22 22 23 22 21 22 23 23 26 25 24 26 23
7 5 7 4 10 15 12 10 7 6 5 3 3 3 2 4 6 9 11 12 13 14 15 17 18 18 19 19 20 25 26 22 24 25 25 24 24 24 28 26 28 27 26 26
8 5 7 10 8 11 10 9 8 6 5 5 5 4 3 4 6 9 11 11 11 13 14 16 18 18 19 19 21 23 25 28 28 27 27 26 25 25 26 27 29 31 28 29
16 14 14 11 10 12 11 11 10 9 8 7 7 6 5 5 7 9 10 10 9 10 13 14 16 18 20 19 21 23 24 24 24 26 27 28 30 30 30 31 34 34 33 31
13 21 19 12 15 14 14 13 12 10 9 8 8 6 5 5 7 9 8 8 9 10 13 15 19 22 21 22 24 27 29 29 29 28 29 30 30 30 29 29 34 34 31 30
10 12 17 20 16 16 17 16 14 11 9 10 9 7 7 6 7 9 6 6 7 10 13 15 21 21 23 26 27 27 27 29 28 29 31 30 29 30 34 33 33 37 41 35
8 6 12 16 18 19 19 19 17 16 12 11 9 8 7 6 6 4 3 5 8 9 12 15 19 23 24 27 28 26 26 29 31 32 33 32 31 30 32 36 37 37 38 36
9 8 10 13 17 16 16 17 18 17 15 13 12 9 8 7 6 5 5 5 7 8 12 13 21 23 28 29 30 29 27 28 29 32 32 32 34 36 32 34 36 34 34 36
8 10 12 14 14 16 15 15 16 17 16 14 13 12 10 9 8 7 5 7 9 10 12 14 19 22 27 32 32 28 25 26 25 26 27 29 32 32 36 36 37 37 36 36
11 11 13 16 18 19 16 23 22 21 19 16 16 14 11 10 10 9 7 9 8 10 13 14 14 19 25 30 30 27 25 24 25 23 24 25 28 31 34 36 36 36 35 35
13 12 12 13 15 15 17 22 24 23 21 19 18 15 12 12 10 10 10 10 10 11 11 9 11 18 24 26 29 28 25 22 21 20 19 19 21 24 26 29 30 32 33 32
9 11 14 14 13 15 16 18 23 24 21 20 19 16 14 11 10 10 8 4 8 9 11 7 15 17 20 19 27 31 30 25 20 17 15 13 14 15 18 19 21 23 25 26
10 11 13 14 11 11 10 8 12 18 20 18 17 14 12 10 8 9 9 9 9 8 8 7 12 15 14 16 25 26 33 33 27 19 15 12 10 8 7 7 8 11 13 15
11 11 10 7 4 7 7 5 8 11 16 16 15 12 11 9 8 6 8 8 9 7 9 12 15 16 14 16 21 24 20 34 31 25 19 16 12 8 5 5 6 4 5 10
10 9 8 7 3 3 3 5 9 15 9 11 10 8 7 7 7 8 7 7 7 7 9 10 11 14 16 14 14 23 19 22 33 29 23 21 18 16 12 7 8 12 16 18
7 7 7 7 6 1 5 7 5 16 10 7 6 6 3 4 6 6 6 5 5 6 8 10 11 14 15 13 15 14 18 16 23 29 26 23 21 20 19 16 14 11 10 14

GFSNGP_850_spd_081.txt.gz
Wind_Speed
6 6 4 15 14 9 14 15 7 17 19 18 16 14 17 17 16 18 18 19 20 24 22 18 5 4 3 1 6 10 7 5 11 12 15 18 19 23 23 22 22 22 20 21
8 4 5 6 5 5 4 2 6 20 18 17 19 18 16 16 16 16 16 16 17 17 16 16 17 14 8 4 5 6 8 9 8 8 12 15 16 18 24 27 26 26 25 25
9 5 4 9 11 10 8 5 5 13 19 18 16 17 16 15 14 15 15 14 14 14 14 15 14 14 15 14 11 2 3 5 13 17 13 13 15 19 18 23 23 27 29 27
6 2 11 6 5 3 8 7 6 14 16 18 18 16 14 12 12 12 11 11 11 11 10 11 11 13 15 15 15 12 8 5 6 9 13 20 14 17 21 23 22 24 29 31
10 8 2 7 4 6 11 11 5 12 11 14 15 17 12 8 8 8 8 7 7 8 8 8 9 11 11 10 12 10 15 13 9 9 11 15 15 13 16 22 24 26 27 29
7 12 15 15 12 4 2 11 9 10 14 14 13 12 14 7 5 5 5 6 6 8 7 7 9 10 10 10 10 11 12 12 13 12 10 10 15 18 17 15 21 25 27 29
8 6 3 10 8 6 9 5 15 11 10 7 3 13 10 5 2 2 4 6 8 7 8 8 9 10 10 10 9 11 12 12 12 12 15 15 13 17 21 20 20 20 25 25
8 8 10 10 6 6 11 12 11 11 8 6 4 4 2 1 1 2 3 4 6 8 8 10 11 11 12 12 13 15 15 13 14 14 14 13 17 15 17 18 21 23 22 24
4 4 7 6 8 10 9 12 8 8 7 4 2 1 1 2 2 2 2 3 4 6 7 8 9 11 14 15 17 18 18 17 16 17 16 15 18 17 15 16 19 17 16 18
3 9 4 4 6 6 5 6 7 6 6 4 3 2 2 2 2 2 3 5 6 6 6 7 10 12 14 16 18 18 19 20 19 18 18 18 15 16 15 15 15 13 17 18
7 6 2 8 9 8 6 6 7 7 6 4 3 3 2 1 2 2 4 6 8 8 8 9 9 11 13 14 16 18 19 18 19 19 20 19 19 17 17 18 17 19 19 20
4 7 5 4 13 11 10 9 8 8 7 5 4 4 3 2 2 3 4 5 6 9 10 11 12 12 13 14 16 17 18 19 17 19 19 21 23 23 21 24 26 27 27 28
9 3 7 2 5 13 11 11 9 8 7 7 5 4 4 3 1 4 5 6 6 7 10 11 13 15 14 14 15 16 16 17 19 22 23 23 24 25 28 25 26 27 27 27
10 7 7 7 8 10 12 11 11 9 8 7 5 4 5 2 2 2 5 6 6 6 6 8 9 11 14 15 16 16 18 20 20 21 23 26 27 28 28 29 29 27 25 26
13 14 15 7 11 12 13 13 12 11 10 9 7 7 6 5 2 2 7 6 6 5 5 6 9 12 14 15 18 21 21 20 21 23 26 26 26 28 30 31 32 33 31 30
14 13 16 17 16 15 17 15 15 12 11 10 9 9 9 8 6 6 4 5 4 4 5 6 9 11 14 16 19 20 22 24 26 24 25 28 27 30 32 34 35 34 33 31
15 15 13 15 22 16 19 17 15 13 12 10 11 11 12 10 8 7 5 5 4 5 3 6 8 12 14 17 20 23 25 23 23 25 25 30 31 31 34 33 33 35 34 31
9 11 11 15 23 17 15 15 14 15 13 11 12 12 12 13 11 8 8 7 7 6 6 6 9 14 15 19 24 23 23 22 23 24 28 32 32 31 38 40 37 35 36 35
8 10 12 14 17 21 20 20 19 19 17 16 15 16 14 13 12 10 10 9 8 7 5 8 12 11 15 18 27 21 22 23 25 25 27 31 31 31 35 37 40 41 43 39
10 13 17 17 17 21 22 20 17 18 19 20 20 19 17 16 14 13 12 11 10 9 10 11 11 10 13 15 24 22 29 29 29 30 29 30 30 31 31 34 36 39 40 40
12 12 12 13 16 19 18 20 21 19 18 22 24 24 21 17 16 14 13 12 10 8 8 12 9 9 12 15 16 21 30 30 31 30 31 30 29 29 29 30 32 37 40 43
10 7 10 12 14 14 17 19 23 23 26 27 26 28 22 18 17 15 15 13 9 11 9 9 7 12 16 18 13 17 22 29 29 30 29 29 28 28 29 29 28 30 34 37
9 10 12 14 17 18 16 14 14 20 24 30 31 28 25 20 20 17 16 15 12 10 8 11 12 16 17 17 14 15 26 22 28 29 28 26 26 26 27 27 27 27 26 28
11 11 13 14 15 15 14 10 12 13 18 26 28 30 22 20 17 14 12 10 10 15 10 12 15 16 20 16 18 22 26 21 23 30 28 24 23 22 21 21 20 20 19 18
10 11 10 10 10 8 8 7 7 8 9 15 8 19 20 18 13 10 9 9 12 10 11 13 15 17 16 16 16 17 20 23 21 26 30 24 22 19 17 15 14 13 14 13
9 11 9 9 10 6 6 5 6 6 5 7 9 13 14 9 10 10 7 9 9 9 9 8 11 12 13 16 16 17 15 19 20 17 27 26 21 18 17 16 13 10 9 8
7 11 7 6 8 6 3 2 2 8 7 11 14 7 4 5 4 4 4 7 6 7 8 9 11 12 14 15 11 13 12 17 18 14 18 25 22 19 20 18 16 14 12 10

GFSNGP_850_spd_084.txt.gz
Wind_Speed
19 15 20 20 19 7 12 14 15 14 18 17 16 15 16 19 19 23 23 23 22 23 22 11 5 6 8 9 5 3 10 14 18 18 17 17 18 22 21 20 21 20 19 18
5 9 15 23 21 13 14 14 13 8 18 20 26 23 18 17 17 20 22 22 21 21 21 22 15 2 4 16 13 11 8 2 7 16 7 15 18 17 20 23 21 22 22 22
3 1 5 3 5 2 8 4 21 17 10 22 18 19 17 15 16 18 19 19 19 19 19 18 17 18 14 6 7 12 19 14 8 7 11 10 11 16 17 19 26 25 24 25
8 2 7 5 9 4 10 5 12 20 21 20 21 21 18 14 14 15 15 16 16 15 15 15 14 15 16 17 15 13 2 4 7 8 8 11 16 16 15 17 19 20 28 29
6 9 3 5 1 5 6 10 14 19 15 24 26 22 14 12 12 12 12 12 12 11 11 11 12 11 13 11 10 10 12 12 11 5 6 10 14 17 20 20 21 23 23 25
9 8 14 14 13 10 5 8 13 17 17 20 22 9 11 13 11 9 9 8 8 8 7 8 9 8 9 8 6 6 6 9 11 9 8 6 8 12 15 19 18 23 23 26
10 7 3 5 4 3 7 3 18 17 15 14 9 14 20 13 9 7 6 5 5 5 5 6 7 8 7 7 6 7 7 6 5 10 9 9 12 10 11 14 19 22 23 21
7 7 5 9 2 2 7 10 10 11 13 19 15 13 11 8 7 5 4 4 4 3 3 4 5 5 6 6 7 9 10 12 10 8 11 11 13 14 13 11 13 13 17 22
6 6 10 13 15 13 12 11 10 11 8 8 9 7 7 6 5 5 4 4 4 3 3 2 4 6 7 9 11 14 14 11 11 16 13 13 16 15 14 11 12 15 16 13
3 9 8 7 7 7 9 10 8 8 10 7 8 7 8 7 7 7 5 3 3 3 3 4 4 5 6 9 11 13 12 13 15 10 13 14 16 12 14 12 13 14 15 17
6 4 6 5 6 7 6 6 9 8 9 8 8 8 9 8 7 5 4 3 1 1 2 4 6 7 8 8 10 13 13 12 14 14 15 12 11 15 16 18 19 21 23 25
4 6 8 2 13 11 10 9 9 11 9 7 7 8 8 8 6 6 4 3 3 2 1 4 6 8 10 9 12 13 15 15 15 15 15 17 19 21 21 19 22 24 25 25
7 9 3 4 2 8 11 11 12 12 12 11 9 8 9 9 7 5 4 2 2 2 2 3 4 7 11 13 12 13 14 16 17 18 18 18 21 23 27 28 26 27 23 24
10 9 8 9 8 10 12 12 12 11 12 11 11 10 10 9 5 6 1 1 1 2 3 4 5 7 10 11 16 15 16 16 15 17 19 19 21 23 24 27 27 26 25 26
11 10 14 8 10 8 13 14 13 13 13 13 12 11 10 9 9 6 2 1 1 0 2 3 6 7 11 12 13 16 15 15 17 18 19 22 24 23 23 25 28 31 31 30
13 13 11 15 12 12 11 17 18 16 15 15 15 15 12 10 8 6 5 4 3 2 2 3 7 6 9 10 14 15 16 17 20 18 19 20 21 23 26 27 28 31 32 28
13 14 16 14 16 16 19 18 19 18 17 17 16 16 15 13 11 8 11 6 5 4 2 2 2 5 7 9 12 16 16 18 21 19 20 21 23 24 26 30 31 32 38 37
8 7 7 9 14 15 18 15 16 18 14 15 12 15 18 18 15 11 14 8 8 8 7 5 7 7 10 7 13 14 13 16 21 24 26 27 26 28 27 30 33 34 40 40
5 7 8 7 7 11 14 15 15 16 16 15 16 16 18 19 15 15 14 11 11 11 9 11 10 11 7 11 15 11 12 15 21 27 31 31 29 29 29 30 32 35 36 38
9 11 10 12 13 11 13 18 21 22 24 24 23 21 19 18 16 15 16 15 13 12 10 10 12 8 5 10 18 11 13 16 22 25 33 35 34 34 34 33 31 33 35 36
10 12 10 11 13 15 21 23 23 24 26 26 29 26 25 25 24 23 21 17 17 18 20 14 11 8 8 13 19 12 14 15 18 24 33 38 38 36 36 35 33 32 33 34
13 10 8 11 10 12 18 25 23 25 22 26 22 27 29 27 24 26 23 20 14 15 10 13 14 13 10 15 14 14 16 19 19 26 33 37 37 37 36 35 35 34 32 30
9 10 11 11 11 14 15 17 15 18 20 19 27 25 27 30 34 27 26 24 18 14 12 12 13 14 16 20 21 15 16 23 23 24 30 33 35 34 34 33 33 32 31 30
9 11 11 11 13 14 16 15 13 12 14 16 19 20 27 32 36 29 18 15 22 19 16 12 14 16 17 20 19 17 23 22 20 23 26 27 34 33 30 29 29 28 28 28
7 11 8 9 12 13 11 8 6 9 9 11 13 17 15 17 20 14 14 15 16 15 11 13 15 18 19 17 15 18 18 18 18 20 22 25 30 29 26 24 25 26 24 23
7 10 9 10 10 9 8 4 6 9 6 3 3 3 11 16 16 11 7 14 15 10 8 11 10 12 13 13 12 13 14 14 21 17 18 23 24 29 22 23 24 24 23 21
6 11 8 6 8 10 6 7 9 11 4 4 5 5 5 8 7 6 7 4 10 5 8 10 9 12 9 11 13 10 11 14 14 12 15 20 25 26 26 21 19 23 20 18

GFSNGP_850_spd_087.txt.gz
Wind_Speed
11 10 13 16 8 11 5 6 5 10 13 15 17 16 21 20 18 19 20 21 20 20 18 16 13 11 13 13 14 12 10 22 21 17 16 19 23 21 20 21 18 17 17 18
7 11 13 13 13 15 3 12 11 13 14 17 27 29 24 24 21 20 20 22 22 24 22 16 10 7 8 8 9 4 2 4 13 18 20 17 20 20 21 19 20 20 20 19
5 8 10 5 4 5 9 14 19 11 10 26 18 25 25 25 24 22 23 23 23 23 24 23 23 18 20 14 5 8 7 8 5 9 19 25 18 20 21 21 23 21 20 22
5 8 4 3 9 9 7 17 21 22 18 13 23 31 31 27 25 22 21 20 20 22 20 18 19 21 21 21 18 16 7 2 2 3 5 9 15 15 11 13 17 21 24 27
2 3 4 15 14 10 5 9 19 20 21 31 30 33 27 23 21 20 19 18 15 12 17 16 17 17 16 13 11 14 14 11 8 6 3 2 5 8 13 14 16 17 20 20
1 2 3 2 9 23 6 6 21 26 30 30 27 9 7 22 20 17 15 15 14 12 9 9 11 11 10 6 3 5 6 6 5 5 5 5 4 5 5 9 12 17 18 22
1 2 3 4 12 19 6 3 18 33 30 25 7 17 28 24 19 14 11 12 10 7 9 6 4 3 3 1 1 2 2 1 1 3 3 2 5 7 8 7 6 7 9 13
3 2 2 17 10 5 1 23 28 32 35 34 34 31 24 20 16 13 13 12 9 7 5 4 3 3 2 2 5 8 8 7 7 7 6 7 8 7 8 7 7 9 11 10
3 3 7 22 19 17 19 20 23 27 27 27 25 21 19 18 14 14 13 12 11 7 5 4 4 4 3 4 8 10 11 9 9 8 6 5 6 8 8 10 9 11 5 4
4 3 12 13 11 12 9 12 13 13 15 14 18 17 15 15 12 12 11 9 6 6 3 5 5 4 4 6 8 10 10 8 5 4 8 5 4 3 6 5 9 14 16 17
2 7 11 10 9 6 5 6 6 8 11 8 12 12 17 16 14 11 8 4 4 5 4 4 4 4 4 5 6 6 6 6 6 8 8 9 9 9 9 8 8 13 15 17
2 8 8 8 13 11 11 6 4 9 8 9 8 13 15 15 10 8 7 7 6 4 5 3 1 6 6 4 7 8 9 11 13 13 13 11 12 13 17 20 20 19 16 17
8 11 8 5 3 12 16 14 9 11 11 10 7 11 11 13 12 10 8 8 9 9 7 6 4 4 7 8 10 11 11 11 13 13 15 18 18 19 23 17 18 19 19 16
6 8 6 6 3 8 8 13 14 11 11 14 14 12 13 14 10 14 11 7 5 7 6 5 3 2 8 8 11 12 13 13 14 16 16 17 18 21 23 26 28 27 23 23
6 6 7 9 10 6 12 15 17 17 14 15 14 15 16 18 14 14 9 7 10 8 6 6 7 4 5 7 9 9 9 11 15 17 17 17 19 21 24 26 29 31 31 28
8 9 10 10 10 10 10 13 19 22 19 17 20 18 16 17 16 16 11 11 9 7 6 7 7 4 2 2 6 11 9 9 13 16 17 20 22 24 26 28 30 31 33 33
4 7 8 9 12 11 14 18 22 19 20 22 23 25 27 23 17 16 13 15 10 13 9 9 8 8 6 4 4 12 10 10 13 17 20 24 26 27 28 30 31 32 34 34
2 4 3 5 8 13 15 15 21 22 19 11 19 25 29 25 26 24 17 18 16 13 5 8 10 11 9 7 6 11 17 15 13 17 20 25 27 30 32 32 31 32 34 35
10 9 7 7 7 7 9 12 14 20 27 23 14 15 23 26 28 23 19 20 23 18 12 10 10 8 8 10 8 12 18 17 18 20 23 26 30 32 35 36 36 35 35 35
6 8 10 7 11 11 10 11 13 16 21 29 21 18 18 26 27 23 24 25 28 20 13 14 12 9 10 9 10 12 13 17 20 22 23 27 30 32 36 37 37 37 37 35
6 5 5 5 9 12 14 15 15 15 19 19 25 28 29 23 28 26 28 30 28 20 18 18 14 12 11 13 12 13 10 18 23 23 26 27 30 31 36 37 36 35 36 36
8 8 6 6 8 8 8 10 15 19 22 24 29 28 24 35 34 29 29 31 27 22 20 23 20 17 18 16 16 18 15 19 22 23 25 25 28 29 33 36 36 35 35 35
5 6 9 10 7 9 10 12 13 13 16 18 20 25 26 30 31 28 30 28 30 22 22 19 14 13 16 16 16 16 16 17 22 24 23 22 25 26 30 34 34 32 32 33
6 6 8 5 11 11 13 16 13 9 10 13 14 15 18 22 21 26 36 34 32 25 18 17 15 16 13 13 16 18 18 18 19 19 21 21 26 25 26 32 30 30 32 31
1 6 9 14 10 13 12 10 8 10 10 11 11 12 14 19 21 23 24 26 28 28 23 16 15 14 15 16 16 18 16 18 19 17 21 21 24 24 26 28 31 28 31 30
6 4 6 9 12 12 8 8 12 12 6 3 5 8 4 5 9 14 13 15 15 14 16 16 17 13 14 13 14 12 15 16 17 21 21 21 24 24 25 25 25 26 25 28
10 6 10 7 5 12 10 11 9 18 18 11 16 23 7 12 10 10 10 14 9 14 11 10 16 14 13 11 17 10 12 17 15 19 19 19 21 24 23 24 23 23 24 28

GFSNGP_850_spd_093.txt.gz
Wind_Speed
4 5 2 6 8 7 6 5 6 10 13 17 12 13 15 15 13 11 12 12 11 15 19 21 22 22 23 22 23 29 20 22 9 14 21 25 25 23 23 21 23 23 23 22
3 7 7 3 7 10 4 8 8 12 5 6 16 19 17 15 14 13 13 14 13 14 17 13 10 12 20 16 12 19 17 26 26 22 13 11 12 21 23 22 21 22 22 21
3 7 6 4 9 6 4 1 16 9 7 13 14 17 18 18 18 19 17 16 17 17 17 14 15 15 14 14 15 15 19 27 27 25 25 20 11 11 13 20 17 20 21 22
1 5 3 4 5 6 4 7 6 13 15 18 19 18 20 23 28 27 26 23 23 21 19 17 16 17 17 17 15 14 14 16 15 17 24 25 20 16 18 17 13 16 15 21
4 1 5 5 6 4 5 6 6 16 17 21 27 28 16 22 27 29 27 24 23 24 26 23 20 17 15 15 13 11 8 7 7 8 11 15 27 26 19 15 18 21 19 16
3 3 2 5 8 20 1 2 4 23 22 30 31 9 6 29 27 26 25 24 24 22 19 18 17 14 12 12 10 8 7 5 4 4 7 8 10 12 16 13 12 10 5 7
7 3 5 10 9 14 0 5 6 16 24 27 4 10 35 33 30 27 23 21 20 18 17 16 13 8 6 7 6 6 5 5 4 4 4 4 4 4 6 6 9 7 1 4
1 3 3 12 10 5 4 5 19 22 21 15 19 38 35 34 32 28 25 21 16 15 14 13 9 6 4 4 4 4 5 6 6 7 6 5 6 6 6 6 7 7 8 4
3 4 5 7 5 4 6 25 29 30 20 20 30 35 35 32 30 25 21 18 15 12 11 9 6 4 5 5 6 6 6 7 9 10 11 9 9 9 9 10 10 9 8 7
4 4 3 14 14 12 13 19 22 27 22 22 36 34 31 28 25 23 19 15 12 10 7 4 3 5 5 3 4 4 5 5 5 6 7 9 10 10 10 11 11 10 10 10
3 5 4 8 16 17 17 17 19 22 25 31 34 34 30 27 24 21 18 15 11 7 5 5 5 5 4 2 1 3 4 4 4 4 4 5 7 9 9 10 11 12 12 13
3 1 3 6 11 14 16 17 18 20 25 27 26 27 26 24 22 20 17 12 9 7 6 5 4 3 3 3 3 4 4 4 4 4 3 3 2 2 3 6 8 11 15 17
3 6 9 7 10 10 17 14 13 14 18 20 22 22 24 23 21 18 14 12 11 10 9 7 5 3 3 5 6 5 4 3 2 2 2 2 1 2 3 2 3 4 7 10
3 2 2 6 4 7 6 15 15 15 16 16 17 20 21 24 22 19 15 11 11 11 10 9 7 6 6 7 6 5 4 4 4 5 5 5 5 5 5 4 2 3 6 9
4 1 3 5 6 6 5 6 16 19 18 19 19 19 21 21 20 16 14 12 10 10 10 10 9 10 9 8 5 5 5 6 6 6 6 7 7 7 8 9 11 11 10 11
1 2 5 8 10 11 9 8 10 22 23 22 23 23 20 19 16 14 14 13 12 11 11 11 12 13 11 8 6 6 4 4 3 4 5 7 8 10 11 13 14 16 19 22
5 5 4 5 7 8 8 10 10 10 18 28 26 23 24 23 21 19 17 14 12 10 9 11 12 15 12 7 9 6 2 2 2 2 5 8 11 13 16 18 20 21 23 25
10 8 6 3 1 1 2 6 11 12 11 15 22 23 27 26 27 24 22 20 18 14 12 11 13 16 15 8 8 9 4 3 2 2 4 8 12 14 17 20 23 25 25 26
11 11 11 9 5 5 6 7 6 6 10 13 15 21 24 26 26 33 30 30 26 21 17 17 15 17 19 14 10 12 7 4 2 1 3 6 10 14 17 20 23 25 26 27
13 12 13 12 10 11 11 12 13 13 12 11 13 17 18 21 21 28 32 35 34 23 15 19 20 17 18 17 15 14 11 7 2 2 4 6 10 13 17 19 22 24 24 25
6 5 5 10 9 10 11 12 11 12 12 14 14 15 15 16 22 21 28 35 38 32 30 21 26 21 20 19 19 17 14 11 10 7 8 9 11 14 17 19 21 23 22 23
4 5 6 6 5 7 8 10 11 13 14 14 13 14 16 18 20 23 24 29 29 31 36 38 30 29 24 23 24 21 18 14 14 15 13 12 13 15 18 19 20 20 21 22
6 6 6 7 7 8 12 14 15 14 14 16 18 18 17 18 19 22 26 25 29 31 30 35 41 36 31 29 27 25 21 18 16 18 17 15 14 14 17 18 19 19 20 22
6 4 4 5 9 12 10 9 9 10 11 11 12 14 16 18 20 22 24 23 24 26 26 35 35 34 36 35 32 26 23 20 17 17 19 17 16 17 18 17 16 17 20 22
6 6 6 6 5 2 4 5 7 11 10 9 9 11 13 16 20 23 23 23 24 23 22 21 28 34 37 42 34 31 23 19 16 15 15 17 18 21 20 19 19 18 19 21
10 6 4 2 7 9 11 12 11 10 10 11 15 17 22 20 12 11 8 7 13 17 22 23 22 25 33 36 31 21 22 22 16 17 18 22 23 21 17 17 18 19 21 22
11 7 5 7 7 3 2 2 3 5 7 9 9 11 14 17 21 13 12 13 9 2 9 21 18 14 19 24 21 19 20 18 17 16 17 19 18 18 17 18 18 20 21 22

GFSNGP_850_spd_096.txt.gz
Wind_Speed
4 3 2 3 5 7 5 5 6 7 9 12 15 11 16 20 19 18 15 16 19 19 18 23 25 25 23 22 23 22 20 15 9 8 7 11 13 14 16 16 16 15 16 17
3 2 3 3 9 11 2 3 2 6 1 5 16 17 16 15 16 16 17 16 17 17 18 20 22 24 25 23 19 22 21 20 17 11 6 4 2 8 13 15 16 17 17 17
3 4 2 3 8 4 6 4 4 5 6 14 15 15 16 16 13 14 17 18 17 16 14 14 14 17 18 18 18 15 17 17 17 19 20 15 14 9 7 6 10 12 16 17
0 4 3 4 2 0 4 5 2 4 13 15 18 19 17 14 16 16 16 19 20 19 19 19 18 18 18 16 13 11 11 13 14 15 19 19 19 22 20 11 12 13 11 12
3 1 5 2 5 4 3 5 1 10 17 23 28 27 16 15 18 21 23 23 24 23 23 22 23 21 20 18 14 11 7 6 9 10 11 13 15 18 25 23 20 17 15 14
2 4 3 4 2 11 4 4 4 5 15 28 25 7 5 22 22 22 23 24 25 23 22 19 18 15 13 14 11 9 8 7 6 4 4 3 1 3 5 8 9 12 12 12
2 1 5 4 13 6 1 4 5 15 16 19 4 6 29 29 26 24 24 24 22 22 20 19 16 12 12 11 9 8 7 5 4 3 2 1 0 0 1 1 4 9 9 8
2 2 4 21 7 3 3 4 15 22 15 15 16 31 33 31 28 26 25 24 22 21 19 16 11 5 6 6 5 5 4 4 4 4 4 3 2 3 5 8 8 9 8 8
4 4 6 8 8 8 2 8 20 25 19 18 31 33 30 30 28 26 24 23 19 16 15 12 7 4 2 2 3 5 6 6 7 7 7 6 6 7 7 9 9 9 8 8
2 2 6 9 7 7 6 13 17 23 20 19 30 27 30 27 25 23 20 17 15 11 9 7 3 1 3 4 4 4 5 5 6 6 7 9 10 10 11 11 11 11 11 11
2 4 3 10 11 11 11 8 13 16 15 15 24 28 27 22 21 18 16 14 11 7 4 2 3 3 3 3 3 3 4 3 4 4 4 6 8 9 10 11 12 11 13 13
4 2 1 1 3 6 8 8 7 11 15 15 24 27 21 20 19 20 19 14 9 5 1 4 4 3 2 4 6 6 6 5 4 3 2 3 3 3 3 5 7 9 10 11
1 6 5 3 1 2 6 7 5 3 5 14 26 24 23 23 23 21 17 15 11 6 6 8 8 6 4 5 6 8 8 7 6 6 4 4 3 3 2 1 1 3 5 7
5 3 5 4 5 5 5 5 8 9 10 10 12 19 22 23 21 20 16 11 8 6 7 8 7 7 7 8 8 8 8 8 7 7 7 6 6 6 5 4 3 2 1 3
3 2 3 1 3 4 3 3 11 12 13 13 13 13 20 21 20 18 14 13 10 10 10 10 10 9 10 10 9 8 8 9 10 9 7 6 5 4 3 2 3 4 5 5
6 2 3 6 5 4 3 5 6 12 18 19 19 17 17 17 16 17 16 16 16 12 9 11 11 11 13 12 11 11 11 10 9 8 7 6 5 4 4 4 5 6 6 8
6 2 1 4 4 4 5 4 5 6 8 21 24 24 24 20 21 20 18 16 13 10 8 8 10 14 16 14 12 12 11 11 9 8 7 6 5 5 6 7 9 10 12 13
7 6 5 3 1 2 2 3 5 7 10 10 11 26 31 29 24 22 22 20 18 17 16 11 12 15 17 17 16 15 11 11 12 10 8 5 4 5 7 9 12 13 14 15
8 9 10 10 7 5 4 5 6 7 7 7 10 12 19 30 28 28 24 29 27 26 24 18 16 18 20 20 16 19 16 14 13 12 8 5 1 2 6 9 12 15 16 16
13 13 12 12 11 11 9 9 11 12 11 12 12 12 15 18 23 29 35 30 37 31 28 22 19 22 21 24 21 19 20 17 14 11 10 7 4 3 4 8 12 15 16 16
7 5 6 7 9 8 7 9 10 11 12 12 11 12 13 14 16 20 26 28 29 28 30 33 25 27 24 24 28 25 24 23 19 13 9 7 7 5 6 9 12 14 16 16
6 4 5 4 3 4 6 9 10 12 13 16 17 16 14 15 16 19 22 26 24 23 29 27 35 31 31 28 31 30 27 25 22 18 15 11 8 9 9 9 11 13 14 16
5 3 4 5 7 8 8 12 13 13 11 11 11 12 14 16 17 19 22 22 23 25 25 29 26 31 35 35 36 33 30 28 24 19 16 14 12 11 12 11 12 14 14 16
7 7 5 5 6 8 8 8 8 8 6 6 7 8 11 14 17 19 22 23 24 24 27 26 26 29 33 36 37 39 37 32 27 21 16 15 16 15 14 14 15 16 18 18
8 7 5 4 5 4 1 5 11 11 13 13 13 11 15 20 14 17 18 17 20 25 26 26 25 27 31 31 37 37 42 37 30 26 20 16 15 15 15 17 18 18 18 19
12 8 5 3 5 8 7 7 4 4 6 6 7 10 13 17 19 17 9 7 7 10 17 22 25 22 19 24 31 27 36 39 33 31 25 20 18 17 18 19 19 18 17 17
14 11 8 6 12 6 4 2 0 2 5 6 7 8 10 12 14 15 18 17 18 13 5 7 14 17 21 21 26 29 29 26 24 18 15 18 18 16 16 16 17 18 20 19

GFSNGP_850_spd_102.txt.gz
Wind_Speed
8 6 3 8 7 11 14 18 17 14 15 12 10 10 12 12 12 13 15 17 18 18 18 20 22 22 32 27 20 25 20 21 18 18 18 16 13 14 14 14 16 15 12 10
10 3 6 9 9 8 11 14 15 16 13 5 7 12 14 13 12 13 14 15 16 15 16 18 20 22 25 26 22 21 22 22 22 21 16 12 14 13 14 13 13 15 13 12
14 8 9 12 14 7 5 7 10 15 7 3 8 10 13 13 12 10 11 11 13 15 16 17 18 21 24 26 21 17 17 16 17 16 19 19 15 14 12 11 11 12 10 11
11 3 14 4 4 1 7 6 6 10 6 7 8 8 9 11 11 10 10 14 14 16 17 20 20 21 21 23 20 20 18 15 14 15 16 21 21 16 11 9 8 6 7 7
4 12 5 7 6 6 6 2 5 8 2 5 11 14 6 8 9 9 12 13 12 13 13 15 16 15 17 18 20 21 17 18 16 15 18 15 11 15 16 13 12 14 14 13
4 5 10 12 7 8 4 6 13 6 5 13 15 8 6 8 10 11 13 14 15 15 16 14 14 17 22 27 25 25 21 15 14 17 15 15 16 18 19 15 19 18 17 15
6 5 3 8 10 6 7 6 13 9 6 11 9 4 18 14 12 13 15 15 16 16 18 18 19 21 22 23 22 21 19 16 14 14 13 12 11 11 15 15 12 10 12 11
4 5 5 16 2 6 7 7 9 6 3 6 7 13 16 16 16 16 18 21 23 24 22 20 18 14 18 17 17 16 15 14 13 13 12 12 12 12 13 14 13 11 9 9
4 3 5 8 7 7 6 3 6 4 4 8 15 15 14 17 20 22 24 23 21 20 19 16 14 11 9 10 11 11 12 12 12 12 12 12 11 11 12 12 10 10 9 7
6 5 7 9 11 13 8 2 7 7 9 9 15 14 16 18 20 22 21 19 17 14 13 12 9 5 3 4 7 8 9 9 10 10 11 11 9 9 7 7 7 7 6 6
5 6 6 8 12 11 11 9 12 8 8 16 15 13 16 19 20 19 17 14 11 11 10 8 6 4 2 1 3 3 4 5 6 7 9 13 13 13 14 13 12 8 9 10
2 6 3 6 6 8 9 9 9 11 12 15 13 16 6 10 13 14 13 12 9 8 6 8 8 7 6 3 1 2 2 2 4 5 6 6 9 11 11 11 12 13 13 12
5 6 7 7 6 6 7 6 5 7 11 16 14 7 6 6 2 7 11 8 6 1 0 2 5 8 7 5 4 4 2 4 4 4 5 6 6 6 8 8 8 7 7 6
8 9 7 5 4 5 5 5 7 7 10 14 16 14 17 16 16 9 10 10 10 7 6 4 5 6 6 6 7 6 5 6 4 6 7 8 7 7 7 5 3 4 4 3
7 5 6 6 4 3 3 3 4 5 7 9 13 13 13 16 16 17 12 11 12 12 9 7 9 10 9 8 8 9 7 6 6 6 7 9 9 8 7 7 7 6 3 3
10 8 6 5 5 4 4 4 4 4 5 6 8 11 12 12 11 13 17 17 19 18 13 10 10 9 10 10 11 11 11 13 11 9 9 8 8 8 8 8 7 6 5 3
12 10 7 6 6 5 5 4 5 5 4 3 4 7 10 10 12 13 15 16 18 17 14 11 10 11 9 9 10 11 11 13 13 10 10 10 9 9 8 7 6 5 4 5
8 7 7 7 6 6 6 6 5 4 3 1 2 3 5 9 12 12 14 15 15 15 16 16 16 15 12 10 12 11 12 13 13 11 12 12 9 8 7 7 6 6 5 4
10 8 7 6 6 5 4 4 3 2 1 1 2 3 5 7 8 9 11 15 17 17 19 18 19 18 15 13 12 14 14 15 15 14 12 11 12 10 9 8 7 6 6 5
12 11 9 9 8 8 8 7 7 5 4 5 6 6 6 6 7 8 8 12 16 19 17 19 21 19 18 19 17 16 17 17 16 16 15 15 14 13 12 12 10 8 7 6
15 13 12 11 9 9 9 10 9 8 6 5 6 7 7 7 7 8 10 11 13 14 17 20 22 20 20 20 21 22 20 19 20 20 19 19 17 17 14 13 11 10 9 8
17 14 12 11 9 8 8 8 7 6 5 5 6 6 6 7 8 9 9 10 12 14 12 12 15 19 22 21 23 26 26 25 24 22 22 21 20 19 17 16 14 12 11 10
17 15 13 10 8 9 8 7 6 5 5 4 3 2 2 3 5 6 7 7 11 15 19 18 14 20 18 20 24 26 26 27 28 26 24 23 22 21 20 18 17 15 14 12
18 16 13 10 10 10 8 6 4 3 4 3 4 4 3 3 3 4 6 8 10 12 12 17 16 20 21 21 22 25 28 27 33 31 26 25 24 23 22 20 19 17 16 15
18 16 14 13 11 10 9 7 7 8 9 7 5 4 5 5 5 6 8 11 13 9 10 11 12 17 21 23 23 24 24 25 24 40 35 30 28 27 26 23 22 20 18 16
20 16 13 13 10 10 10 12 11 9 8 8 6 4 3 2 2 4 6 8 8 13 14 19 10 10 11 18 22 23 24 24 24 30 34 29 37 32 31 28 25 23 20 19
18 17 16 13 10 13 14 12 10 9 7 7 6 6 5 3 2 4 4 4 5 7 9 9 12 20 12 10 17 16 21 24 25 26 31 29 40 41 34 29 26 22 19 18

GFSNGP_850_spd_105.txt.gz
Wind_Speed
1 7 11 10 13 15 14 17 15 10 10 5 16 13 13 14 12 10 15 20 23 25 28 31 26 27 26 31 32 31 28 23 20 18 18 17 16 15 14 15 14 14 12 12
12 8 10 13 8 9 8 13 14 18 18 12 19 15 15 14 13 13 14 15 17 16 18 22 25 24 23 19 23 25 20 31 27 23 23 18 15 15 16 15 14 14 13 13
13 11 10 13 14 10 13 14 14 15 16 13 6 7 9 12 11 12 14 16 16 16 16 18 19 20 22 26 23 24 16 19 23 23 22 20 15 14 13 13 15 15 13 13
13 7 10 4 7 11 4 11 8 16 3 7 11 11 7 6 10 11 10 13 12 18 19 19 17 19 21 22 22 20 13 16 15 18 19 21 21 18 15 13 11 12 12 15
10 12 8 13 4 1 2 1 17 17 14 4 8 7 8 5 5 10 9 12 14 13 14 17 17 14 17 20 20 19 18 15 13 12 12 12 19 21 18 15 13 9 11 11
4 7 16 7 12 12 6 9 9 7 13 6 4 6 5 9 8 6 9 10 11 10 11 12 14 14 15 20 19 19 22 18 14 14 13 19 12 16 18 18 16 13 19 18
5 4 2 8 11 11 14 4 10 10 6 5 4 6 6 15 14 9 9 8 9 10 10 10 10 12 20 18 20 21 20 18 15 13 16 15 15 14 17 19 18 19 19 12
5 4 8 12 4 5 6 6 8 7 3 2 3 6 9 8 8 10 13 11 11 13 14 14 13 14 18 18 18 18 16 14 14 12 9 11 12 14 13 15 18 15 11 10
5 2 5 9 9 6 5 3 7 7 4 4 5 11 8 9 11 13 16 19 20 21 21 19 18 14 12 14 13 13 12 11 11 8 9 8 10 9 11 10 8 7 6 6
1 4 8 8 8 9 6 5 6 8 11 13 22 14 12 13 17 22 23 22 21 20 18 17 14 12 12 8 7 7 7 7 7 7 8 7 5 7 6 5 7 8 8 6
3 5 6 7 7 8 9 7 8 10 17 16 10 17 19 19 20 20 19 17 16 15 16 15 13 10 8 6 4 6 5 4 5 4 6 11 14 15 15 17 16 11 9 8
5 13 6 7 6 6 7 8 8 10 13 12 14 18 17 17 17 16 15 12 12 13 13 14 13 11 9 7 7 7 7 8 6 5 4 4 7 13 11 11 16 17 15 14
4 6 5 8 6 5 7 6 7 10 12 21 19 12 11 8 11 13 11 9 5 4 6 7 8 8 7 4 5 9 12 9 5 7 5 4 4 2 3 9 10 12 13 12
8 9 8 8 7 5 5 6 6 9 12 11 9 10 11 12 16 16 14 6 3 7 3 2 5 7 5 3 2 2 4 4 5 4 5 6 6 5 4 2 2 6 9 8
10 8 5 8 6 6 6 6 6 7 9 10 10 11 12 13 12 10 9 7 10 11 6 2 4 6 5 5 4 3 1 2 2 4 5 6 6 7 6 6 6 4 4 5
9 8 7 8 7 7 7 6 8 7 7 8 9 11 11 12 12 13 14 15 15 15 13 10 9 9 6 6 4 5 7 9 7 6 7 7 6 6 7 7 7 6 5 4
11 9 7 7 6 7 7 8 9 6 6 7 8 7 10 10 11 12 14 16 18 17 14 13 11 10 10 9 9 10 11 13 11 8 7 6 7 8 8 8 7 9 10 14
10 7 8 7 7 6 5 5 4 5 5 5 5 7 9 12 13 12 13 14 14 15 17 17 15 13 12 9 8 8 7 7 10 12 9 9 9 10 10 9 10 11 10 10
9 8 8 8 8 6 7 6 6 5 4 4 5 6 7 9 11 12 13 15 16 18 16 17 17 17 16 14 10 10 11 11 10 11 11 11 13 12 11 12 12 10 9 8
10 9 9 8 8 7 7 7 7 6 6 6 6 6 7 7 8 9 9 12 14 16 16 18 21 20 19 18 17 14 13 15 15 14 14 14 14 15 14 15 13 13 12 12
13 12 11 10 10 9 9 9 9 9 8 5 6 6 6 7 7 8 9 11 13 14 15 18 15 19 19 20 23 19 17 18 18 17 17 18 18 18 18 17 16 16 14 12
15 14 13 12 11 10 9 9 10 9 8 8 7 7 7 7 6 7 8 9 9 7 7 9 12 17 21 20 22 22 21 20 22 23 24 21 21 21 21 20 19 17 16 14
17 17 15 13 12 11 10 10 10 10 9 9 7 5 5 5 4 4 4 3 7 12 11 11 16 19 19 22 22 22 25 23 24 29 28 23 24 23 23 22 21 19 18 16
18 18 17 15 13 12 12 11 9 9 8 7 6 5 4 2 3 1 3 6 12 7 6 9 15 21 22 24 22 23 26 27 25 26 29 28 30 26 24 26 25 22 21 20
19 18 17 16 15 13 12 12 10 9 9 9 8 6 4 3 3 3 2 4 11 9 7 15 16 11 10 14 21 23 23 25 27 27 30 33 38 39 32 25 27 23 24 20
14 15 15 15 12 11 12 11 12 11 11 9 8 7 6 3 3 1 3 3 4 6 5 7 12 14 10 10 13 18 19 21 22 22 24 27 33 40 39 34 29 26 25 26
28 24 15 13 12 12 13 14 14 12 11 10 9 8 7 6 6 5 4 3 4 5 6 6 7 10 11 15 14 8 12 14 17 23 22 25 25 33 32 35 39 35 32 25

GFSNGP_850_spd_108.txt.gz
Wind_Speed
6 7 12 15 11 15 18 15 13 9 13 18 13 12 14 17 28 28 24 26 25 24 24 22 23 36 19 23 26 31 32 28 22 18 19 18 17 17 16 14 13 11 12 10
8 8 12 11 5 16 9 16 12 12 3 15 13 13 10 8 16 20 23 24 25 25 25 28 34 32 29 24 31 28 26 23 21 22 29 20 22 21 21 18 14 12 12 10
12 6 9 10 12 10 10 8 7 10 14 7 7 14 16 4 7 13 13 12 16 15 18 23 28 28 26 22 26 32 31 25 22 17 24 21 22 18 18 18 20 15 14 17
7 3 5 4 16 21 7 9 12 16 15 25 17 11 12 6 6 10 14 9 13 13 13 14 16 21 22 22 24 19 18 18 14 16 16 18 18 15 15 15 16 16 18 15
9 10 11 7 7 10 16 7 13 13 12 13 24 16 18 13 10 9 11 11 11 15 12 15 18 18 18 19 17 18 16 13 11 10 13 18 20 19 18 16 17 17 15 14
6 12 5 4 6 13 15 2 18 17 14 16 14 6 5 14 11 10 2 3 4 5 10 12 12 12 17 17 18 17 14 14 12 11 10 7 8 10 16 16 16 18 14 14
5 6 9 7 14 10 3 5 20 11 12 13 11 13 10 9 8 8 6 5 5 7 8 8 8 9 12 14 18 18 17 18 15 12 12 11 13 10 13 15 16 15 14 14
4 5 10 6 7 7 2 2 10 10 12 8 8 11 7 6 8 7 6 8 9 10 9 8 7 8 14 15 16 19 19 18 16 13 9 12 13 12 12 12 15 14 13 13
2 1 9 9 15 4 3 5 12 11 12 8 10 13 8 8 7 9 12 14 14 16 18 17 15 10 12 14 15 17 17 17 15 13 11 10 12 11 9 10 11 9 9 8
10 6 15 13 8 7 10 16 14 14 9 6 12 11 11 13 17 21 22 21 19 19 19 20 18 16 16 12 12 10 10 12 13 16 11 13 11 11 12 13 10 5 4 3
4 21 20 5 6 7 11 13 16 14 11 10 8 17 20 21 20 20 21 19 19 20 20 18 14 11 10 11 10 6 7 7 9 11 8 11 10 10 11 9 12 13 13 13
2 4 5 8 4 6 13 12 10 12 11 11 14 19 21 21 21 19 16 15 16 17 18 17 15 14 11 8 10 8 12 10 8 6 4 2 9 12 10 12 15 15 15 16
9 11 12 8 5 6 6 11 11 11 10 13 14 16 16 18 18 15 14 10 10 12 11 10 11 12 10 8 7 7 10 7 11 7 3 5 5 5 5 12 14 19 20 20
6 7 6 6 7 6 5 6 11 15 15 13 9 8 10 13 15 14 16 14 9 7 4 3 4 8 7 5 4 2 3 5 9 8 9 3 2 3 5 9 4 8 11 12
6 8 5 9 6 5 6 5 6 14 13 14 10 10 10 12 11 12 13 10 7 3 3 5 4 3 5 5 3 1 6 5 8 4 10 9 8 8 6 7 6 11 9 6
8 7 6 5 5 6 6 7 7 13 14 15 14 14 13 12 11 12 13 13 12 7 6 7 6 4 4 5 5 3 5 8 10 11 7 9 8 11 8 8 7 10 7 7
12 9 6 6 5 5 7 8 8 6 9 13 12 11 12 15 13 14 15 16 16 14 14 13 11 10 8 9 9 5 7 9 9 12 13 11 7 8 9 9 11 12 11 11
9 8 9 7 7 6 5 3 3 4 2 2 5 3 5 10 10 10 11 13 16 16 18 17 17 15 13 11 10 9 9 9 8 11 13 14 15 13 12 13 12 12 13 15
11 10 9 8 8 8 7 6 5 5 2 2 2 3 5 6 4 10 12 13 14 15 16 16 18 18 19 15 14 13 10 10 10 8 11 13 12 15 13 14 13 13 14 15
12 10 10 10 10 10 10 9 8 7 8 8 6 6 7 8 7 8 8 11 9 12 12 14 18 21 18 20 20 15 14 17 14 13 12 11 13 13 14 15 15 14 13 12
14 12 12 12 12 11 10 9 9 10 9 8 8 6 8 8 7 7 8 9 11 9 13 12 16 12 17 19 21 22 19 17 18 17 17 16 16 17 15 15 17 18 14 16
15 15 14 13 13 12 12 10 9 10 9 6 5 6 7 8 9 9 10 8 7 7 4 5 7 15 14 14 18 19 19 20 20 17 18 18 19 18 18 18 19 19 18 18
16 17 16 15 15 12 10 9 8 9 8 8 8 8 8 8 4 4 7 9 5 11 10 7 13 17 19 19 18 17 20 21 22 21 20 21 21 24 20 19 21 20 18 19
19 18 18 17 14 12 11 11 9 10 10 9 9 8 8 6 7 6 6 5 7 2 1 5 12 14 17 19 21 21 25 26 26 25 24 24 28 29 28 22 25 24 22 18
20 20 19 18 17 14 13 14 12 10 9 10 9 8 7 6 5 7 7 3 5 5 2 7 14 15 12 8 9 14 18 24 24 25 25 28 29 27 29 29 27 28 28 24
23 23 23 25 22 18 15 14 15 12 11 14 10 9 10 8 6 4 4 5 3 3 3 3 2 6 8 12 15 9 13 15 15 18 20 23 25 26 27 36 34 36 37 29
22 27 25 22 21 19 15 14 13 15 14 15 11 12 11 8 9 6 6 8 4 5 6 7 5 5 5 6 9 13 17 8 5 7 10 12 17 26 26 27 29 32 31 30

GFSNGP_850_spd_114.txt.gz
Wind_Speed
9 9 3 1 5 13 5 5 5 3 5 4 6 9 17 30 34 24 9 17 34 36 43 43 43 43 40 39 39 36 27 27 29 28 24 24 21 22 20 19 15 10 10 13
1 7 7 1 14 13 9 6 6 6 9 6 8 9 22 22 15 32 31 15 15 32 39 42 41 41 37 37 33 29 29 32 32 28 27 24 27 22 24 24 23 19 16 15
4 5 4 7 6 12 12 11 3 9 5 8 10 17 21 18 8 8 22 28 4 18 31 37 42 42 41 40 36 36 30 36 32 29 29 28 25 25 20 26 22 22 21 17
3 4 2 1 8 17 18 13 7 5 6 12 14 22 24 22 17 18 21 7 4 14 19 26 29 34 35 33 33 26 34 31 31 27 28 30 25 23 25 25 25 26 23 22
3 1 2 3 6 4 3 7 7 5 4 10 13 15 20 14 14 12 12 10 7 8 7 6 23 23 27 31 31 30 30 27 25 26 32 25 21 22 22 23 21 20 20 18
3 2 5 4 8 16 2 3 6 9 7 2 5 3 2 9 9 8 7 5 5 8 5 2 10 12 19 22 25 24 25 21 19 23 26 18 16 14 12 14 15 14 15 16
4 1 4 2 17 16 3 5 3 10 5 2 3 5 5 2 6 7 7 7 7 7 6 4 5 14 11 14 23 24 24 24 25 19 17 15 14 14 13 14 14 14 15 15
1 4 6 2 6 5 4 3 8 10 6 8 10 8 3 1 4 6 7 5 6 7 8 9 7 6 9 11 13 12 14 14 13 13 13 13 12 12 10 10 12 15 14 12
5 5 3 5 3 9 13 17 12 11 10 7 5 4 3 3 2 4 6 8 8 9 12 12 10 7 6 6 8 13 19 18 16 16 16 16 12 12 10 12 13 13 13 11
2 3 5 5 3 7 11 14 13 11 10 7 6 3 4 5 7 9 8 8 9 11 12 13 11 8 9 9 6 6 11 11 13 14 16 18 18 17 16 16 15 15 15 14
1 3 2 5 5 19 19 15 14 12 8 7 7 7 6 7 10 11 13 13 9 11 13 15 12 11 11 10 8 9 11 12 11 10 9 5 8 12 12 14 15 14 13 11
5 16 9 14 17 18 15 13 9 9 10 11 10 12 12 13 13 14 13 14 15 16 13 12 11 10 10 10 9 7 8 8 6 6 6 6 3 1 3 5 6 7 9 12
7 23 12 13 20 15 8 9 6 7 8 13 12 11 14 14 13 13 13 11 14 15 14 12 10 9 9 8 8 8 8 8 6 7 8 6 4 2 5 7 6 5 7 7
18 22 15 18 19 16 11 8 7 8 10 11 12 12 11 11 12 13 12 9 9 10 10 10 8 7 6 5 4 4 3 4 3 3 3 0 2 3 3 2 3 5 7 6
24 22 19 18 20 19 11 11 13 13 14 13 13 11 11 10 11 11 10 8 6 3 5 3 1 1 3 4 3 3 2 4 4 4 2 1 3 3 3 4 4 5 5 5
22 18 15 23 25 22 17 17 16 17 16 14 14 12 10 8 7 8 10 9 5 2 1 0 2 1 1 1 1 0 2 4 6 6 7 6 7 8 8 9 8 7 7 4
21 15 18 28 24 23 23 20 16 17 19 16 13 9 12 9 8 8 6 5 5 6 6 6 4 5 5 4 4 3 2 2 4 6 8 8 9 10 11 12 9 8 8 5
19 20 16 17 17 17 14 10 11 14 20 16 15 16 15 14 12 6 5 5 7 7 8 7 10 12 13 11 9 8 8 6 5 5 5 7 7 8 9 11 12 13 10 7
21 15 24 21 18 17 16 13 12 11 17 18 16 25 19 11 12 14 16 18 12 12 9 8 7 10 15 16 14 12 11 12 11 7 4 4 6 8 10 11 14 14 14 8
17 16 22 19 16 18 18 15 12 14 17 15 15 18 17 13 8 6 5 10 12 11 11 10 9 10 11 12 13 13 12 12 14 14 11 10 10 10 9 10 10 10 12 11
16 20 21 20 17 16 15 16 17 17 16 12 11 13 15 12 11 10 10 8 8 9 8 10 13 12 11 11 13 15 16 15 15 17 17 15 15 18 17 12 13 12 10 15
19 20 19 17 16 17 16 18 18 16 15 15 17 18 17 15 14 13 10 9 8 6 6 6 5 8 11 12 15 16 17 18 18 19 22 21 21 17 21 18 17 15 16 14
22 21 20 19 20 20 20 21 21 20 19 17 17 17 15 13 12 12 9 8 7 7 6 7 10 13 15 15 17 19 20 19 20 20 20 19 22 22 17 18 20 20 21 21
24 24 25 24 22 23 24 24 25 25 25 22 20 18 15 11 12 12 5 6 6 6 10 2 3 8 4 5 5 6 9 16 21 21 18 20 19 19 18 20 19 20 23 23
24 25 27 28 29 30 28 25 27 29 27 25 20 15 8 11 12 9 8 9 3 2 4 4 5 6 8 12 15 13 11 5 6 7 9 15 22 24 23 23 23 24 26 29
28 30 33 34 34 35 34 31 34 36 31 27 21 10 10 12 15 12 13 7 6 6 4 3 1 5 7 7 10 14 15 15 10 7 6 5 4 4 7 13 19 23 28 30
27 28 28 33 37 39 38 37 41 38 31 25 15 10 10 17 14 13 12 10 8 5 6 8 8 6 7 5 5 8 9 11 12 8 8 7 8 10 16 26 25 22 23 26

GFSNGP_850_spd_117.txt.gz
Wind_Speed
4 7 2 2 3 7 6 3 3 3 5 7 5 5 8 13 20 23 17 12 20 24 32 34 36 38 39 39 40 35 34 33 30 25 23 22 20 18 18 19 16 13 13 13
4 7 6 4 5 7 5 3 6 5 8 5 7 8 11 8 15 23 20 11 14 14 21 29 35 37 36 36 39 40 38 36 32 26 26 24 23 23 23 23 19 20 19 16
3 3 4 6 6 6 2 6 4 4 1 2 10 15 18 12 11 15 20 14 8 7 13 20 29 35 35 34 36 36 37 34 32 29 28 26 26 24 29 26 21 20 24 21
3 4 4 2 4 9 7 5 5 6 6 10 12 18 19 17 12 13 12 14 9 7 5 9 22 28 32 35 34 34 34 33 33 33 33 27 26 27 23 25 25 25 24 24
3 1 4 2 1 3 2 2 3 4 6 9 10 6 16 14 14 13 10 10 9 5 4 5 5 9 27 26 25 28 28 27 30 28 29 29 33 30 28 20 23 24 22 26
2 4 7 4 3 1 3 1 4 4 1 2 3 3 1 8 10 10 8 6 4 3 4 4 12 13 9 5 16 16 22 22 24 26 24 26 30 30 25 20 20 19 18 19
2 2 4 6 7 1 5 6 6 2 2 1 3 4 9 4 5 7 7 6 5 3 1 2 3 11 15 14 15 20 16 19 21 21 19 20 15 13 12 12 12 13 13 13
1 3 5 1 2 6 4 16 13 6 2 5 11 10 7 5 5 4 5 4 3 3 3 5 3 8 13 12 12 15 15 19 7 9 17 11 9 8 12 13 12 12 11 11
7 5 4 3 2 3 6 14 14 9 6 8 8 5 4 4 4 5 4 5 4 4 4 7 6 5 5 7 5 9 8 10 12 15 13 10 14 12 12 11 11 12 14 12
2 3 3 2 1 3 9 9 10 8 7 6 6 4 4 5 4 6 8 8 7 7 7 9 9 8 9 6 4 4 10 15 17 16 16 18 18 16 15 14 14 12 11 11
3 4 3 5 4 9 10 8 11 10 5 3 8 11 10 8 6 7 9 9 8 8 9 11 10 10 10 10 8 7 10 11 11 10 9 10 10 13 14 14 15 15 14 13
6 15 9 11 11 14 14 12 11 11 12 11 11 15 16 14 12 12 10 10 9 8 9 9 8 8 8 7 8 8 10 11 10 9 7 4 4 3 3 1 1 6 9 9
4 15 13 17 17 17 15 14 13 11 11 14 15 15 17 16 13 12 11 10 11 11 11 10 9 8 8 8 8 7 7 9 9 9 10 9 5 3 2 1 2 1 2 1
9 17 11 19 22 18 15 14 14 15 12 11 14 15 13 13 14 13 12 10 10 11 11 11 10 9 7 6 6 6 5 5 6 3 3 5 5 6 5 5 6 3 1 2
15 27 23 22 20 19 19 16 16 16 15 13 11 10 10 11 12 11 10 9 9 2 3 1 2 3 3 3 3 2 3 3 2 2 2 2 1 2 2 3 3 4 3 3
21 21 16 25 25 23 20 17 15 15 14 15 12 11 8 7 8 10 8 8 5 0 1 2 2 2 2 2 2 1 1 2 2 1 1 2 3 4 6 6 5 6 5 5
20 18 15 25 28 25 20 14 12 13 14 12 12 12 10 7 7 9 9 9 6 4 3 3 2 2 1 2 2 1 1 1 2 3 4 5 7 8 8 7 7 5 5 6
23 22 24 20 26 26 22 19 13 14 14 12 13 14 14 13 7 5 7 8 8 8 6 4 5 7 9 8 7 6 5 4 4 3 2 1 2 5 7 8 9 9 8 7
24 20 15 16 24 21 18 20 18 13 13 17 18 18 18 16 10 10 11 12 13 14 10 6 7 7 5 8 10 10 10 10 9 7 6 4 1 2 4 6 7 9 11 11
22 15 20 21 21 20 19 16 12 12 10 13 20 18 19 17 15 13 11 12 16 18 18 17 13 12 7 6 10 10 10 10 10 10 11 11 10 8 7 7 6 7 8 9
19 17 18 21 20 15 14 15 14 12 10 12 15 11 14 14 14 12 10 11 8 9 8 8 10 13 13 11 10 9 11 12 13 13 13 14 14 13 13 15 14 13 10 10
18 19 20 22 20 20 20 18 17 13 14 17 15 12 13 17 17 16 13 11 10 10 8 8 8 7 7 8 10 13 14 15 15 16 16 17 18 19 19 20 19 19 16 14
21 21 22 24 25 21 20 22 21 20 20 21 20 20 21 20 19 17 15 13 10 8 7 6 6 8 10 12 13 15 17 19 19 19 19 20 19 18 19 20 19 18 21 21
22 22 24 23 21 20 21 22 23 22 22 21 21 20 22 23 21 17 16 10 12 9 7 4 1 3 4 4 2 5 7 10 13 16 16 16 15 15 16 13 14 17 20 21
20 22 25 26 27 27 25 24 24 26 26 27 25 24 23 20 14 10 11 11 11 9 7 8 7 6 8 13 14 14 12 5 1 3 4 6 7 11 14 15 17 21 24 26
21 23 26 29 31 32 31 31 33 32 33 33 32 30 25 17 12 7 10 13 11 8 11 10 6 4 4 4 7 9 11 9 10 9 8 7 7 6 5 8 12 20 20 22
23 28 32 34 36 38 39 39 40 40 38 35 37 29 22 21 15 10 16 17 13 11 12 9 6 4 2 1 2 3 4 5 6 7 6 5 7 9 11 16 18 22 27 25

GFSNGP_850_spd_120.txt.gz
Wind_Speed
3 3 3 1 5 4 3 2 2 7 7 0 4 6 12 14 11 6 7 18 21 21 22 30 37 40 41 40 38 38 38 35 33 29 26 23 22 22 21 22 21 19 17 15
2 5 6 3 6 4 4 5 7 10 5 4 7 6 10 12 14 14 8 2 7 21 22 22 29 36 36 38 37 36 40 38 38 34 30 27 23 22 21 21 21 20 19 17
3 4 5 3 2 4 3 3 2 5 3 6 4 7 8 8 10 12 10 8 4 9 16 11 14 21 27 31 33 35 32 35 36 34 34 28 25 25 25 24 23 23 21 24
2 2 3 2 2 2 9 2 5 5 7 8 7 9 9 8 8 9 9 8 8 7 10 14 9 9 16 22 29 33 28 30 33 32 31 28 28 26 26 26 26 25 22 21
2 2 3 3 4 6 3 1 3 7 7 11 13 4 5 6 8 9 9 8 7 6 1 5 11 6 7 15 19 24 28 31 36 30 27 22 25 27 27 24 21 18 22 19
1 2 6 5 4 4 5 3 7 10 10 11 9 2 1 4 8 9 10 10 8 6 4 2 5 6 8 6 9 11 15 5 17 27 14 14 20 26 30 31 25 20 22 19
2 2 6 3 4 7 5 7 15 12 4 6 4 1 4 2 7 9 10 11 11 11 10 10 7 4 9 10 8 6 6 10 5 13 10 10 14 16 17 20 25 22 18 18
2 1 5 4 6 5 3 6 20 14 10 11 9 7 4 2 5 7 8 9 10 11 10 11 9 3 5 9 5 8 3 6 13 6 0 2 6 1 2 7 8 13 15 12
7 5 3 3 4 3 3 6 8 11 8 9 11 6 2 2 3 5 6 7 9 10 9 9 9 8 1 4 6 7 9 13 13 7 5 5 7 6 7 7 8 8 8 8
2 3 6 6 5 5 6 9 8 6 9 7 6 5 5 4 4 5 6 6 8 8 10 11 11 11 12 9 9 6 8 9 6 14 10 8 9 13 12 13 13 14 15 15
4 7 5 9 8 7 8 7 6 7 5 4 5 7 6 6 7 8 8 8 8 8 9 11 12 12 12 13 10 10 9 10 9 8 7 8 7 10 12 13 14 14 14 13
6 7 7 9 12 14 14 10 8 7 8 9 11 14 11 9 7 8 8 8 8 8 9 10 10 11 11 11 10 10 10 9 10 11 11 10 10 8 7 6 2 1 4 6
2 3 6 8 15 15 12 12 11 8 6 9 12 12 13 13 12 11 12 12 12 11 12 11 10 10 11 10 10 11 11 12 12 12 11 11 10 9 8 6 6 6 7 6
13 6 7 18 19 16 11 14 12 9 9 10 12 13 11 10 12 12 12 12 13 13 12 11 10 9 8 8 7 8 9 10 8 8 8 9 9 9 9 10 10 9 7 6
12 15 13 18 20 18 16 17 15 13 12 12 11 10 10 10 11 10 9 9 9 6 5 4 5 5 6 6 5 5 4 4 5 5 6 6 5 4 5 6 5 5 4 4
13 16 14 20 23 22 19 18 16 14 13 13 13 13 11 10 10 9 7 6 4 4 5 6 4 4 4 5 5 4 3 3 2 2 3 3 4 5 6 5 4 3 2 2
18 17 18 23 25 24 22 16 17 15 16 15 12 12 11 10 9 10 9 7 6 4 2 2 2 1 1 2 3 3 3 3 3 3 2 2 3 4 5 5 5 4 4 5
16 20 21 20 25 25 24 19 17 16 14 12 16 15 13 11 8 7 6 5 5 5 4 2 3 4 4 5 5 5 5 5 4 2 1 0 1 2 3 4 4 4 4 5
17 19 20 19 22 23 23 21 17 14 14 14 18 20 18 13 11 9 8 7 9 10 5 7 7 6 5 5 7 8 10 10 9 8 6 5 3 2 1 1 2 4 5 5
19 17 18 15 17 21 24 19 20 19 18 17 17 21 20 17 15 15 11 11 10 12 14 14 14 13 12 11 11 10 12 12 11 10 10 10 10 9 8 8 6 4 4 5
23 20 18 21 18 18 22 20 18 17 16 17 16 17 16 11 13 16 15 12 7 7 6 8 10 10 12 17 16 13 11 10 10 11 12 11 11 12 12 11 11 12 12 10
23 23 19 18 21 22 20 17 14 13 15 11 11 14 12 12 12 14 14 12 11 9 10 10 8 8 8 9 10 11 12 12 13 14 15 14 14 14 14 14 15 14 13 16
20 21 16 18 20 17 15 15 16 16 16 13 14 18 16 13 11 14 14 12 11 10 8 7 6 7 9 11 13 15 16 16 15 15 14 13 12 11 12 13 14 16 17 17
17 18 16 18 19 19 21 20 19 20 19 18 17 17 18 17 19 18 16 13 11 11 11 8 6 3 2 2 2 4 5 8 9 9 9 9 10 10 9 9 10 12 15 18
13 15 16 20 22 22 22 20 18 18 22 24 24 23 23 22 21 17 18 12 11 13 11 9 9 8 8 9 8 10 10 7 4 2 2 2 2 2 2 5 8 10 12 16
16 17 17 18 21 23 24 25 26 25 26 27 28 28 28 27 26 21 19 18 14 14 14 15 12 9 5 5 7 8 10 10 9 10 10 10 9 7 5 8 10 13 17 20
16 18 21 23 25 26 28 30 33 34 35 35 35 33 30 28 28 26 22 17 18 17 19 18 14 10 6 3 1 1 2 3 5 6 6 5 5 6 7 9 12 16 20 23

GFSNGP_850_spd_123.txt.gz
Wind_Speed
0 5 1 2 3 5 1 3 4 2 4 1 5 5 9 11 10 10 7 6 13 19 22 23 28 33 35 36 37 37 34 33 32 30 28 28 25 22 22 24 24 22 21 19
3 3 7 5 5 5 4 3 2 1 3 2 3 5 7 12 13 17 12 3 4 16 16 21 25 22 25 30 32 33 35 33 34 33 34 33 31 27 24 25 26 25 24 21
4 4 6 10 6 2 3 4 3 7 2 6 2 6 9 10 11 12 11 9 3 8 13 16 16 17 22 27 29 30 32 31 28 27 27 32 34 32 28 27 25 24 22 22
4 3 8 3 3 4 1 2 4 4 8 7 6 4 5 7 7 9 8 8 8 5 9 11 12 14 17 16 18 22 24 23 20 22 27 24 27 31 31 27 28 25 24 22
4 6 5 4 4 5 7 7 7 8 8 10 7 2 3 4 5 5 5 5 4 4 1 6 11 14 13 11 13 13 17 24 23 23 26 29 32 35 34 29 26 27 23 21
3 4 6 2 2 2 2 7 15 12 15 16 11 3 3 3 4 4 5 5 3 2 2 2 7 8 7 3 9 12 20 17 15 15 12 22 23 21 24 21 26 25 20 14
4 5 5 1 6 5 8 2 12 18 18 18 9 3 8 6 5 5 5 6 6 6 6 5 2 2 8 9 11 9 9 8 9 8 9 10 9 8 12 19 30 26 20 16
2 4 5 7 5 5 2 7 7 6 7 9 12 15 9 5 5 5 6 7 8 9 10 8 6 3 7 9 4 5 4 5 5 4 4 5 8 6 6 9 13 14 13 8
5 2 2 7 5 6 6 2 3 6 8 11 12 10 7 5 5 5 7 9 9 10 12 12 12 10 6 2 1 2 2 2 6 3 6 2 4 5 7 8 7 10 8 5
2 2 9 9 9 7 5 6 10 7 5 6 8 9 8 7 7 8 8 9 9 9 10 12 13 13 14 10 7 4 2 3 1 2 7 3 7 6 6 10 10 9 7 7
5 7 4 10 10 7 8 9 10 9 7 6 7 8 9 8 7 8 9 11 11 10 12 14 13 14 14 15 13 11 11 9 5 3 3 4 6 6 6 5 6 8 10 10
5 4 3 2 14 12 13 12 10 10 10 9 8 9 11 11 10 11 10 10 10 11 12 13 13 13 14 14 13 12 11 11 11 11 12 11 9 8 8 7 6 4 3 2
3 3 9 6 14 15 13 12 12 10 10 12 13 11 11 12 13 13 13 13 12 13 13 13 13 13 13 13 12 12 14 15 15 15 14 13 12 12 9 7 8 9 12 9
13 6 6 15 15 19 13 13 11 11 13 14 14 14 14 13 14 14 14 15 15 14 13 12 12 11 12 11 10 11 12 11 10 11 11 11 12 12 13 14 12 11 10 8
15 15 5 10 18 18 17 17 14 13 14 15 14 13 13 14 16 15 14 13 10 8 7 7 8 8 9 9 8 8 8 9 9 8 8 8 8 7 7 7 7 6 6 6
17 13 12 19 24 21 18 17 15 15 15 15 14 14 14 14 13 12 10 8 7 7 8 7 7 7 8 8 8 7 7 6 5 4 4 3 4 4 4 5 4 3 2 3
16 14 15 20 24 24 20 20 18 17 17 16 15 16 15 14 14 12 10 8 6 3 3 3 3 4 4 4 4 3 4 4 4 4 3 3 4 5 5 5 4 3 2 1
10 14 23 26 28 25 22 20 21 19 17 16 17 16 15 16 14 14 13 11 10 7 5 5 4 4 4 4 3 3 3 3 3 2 1 0 1 1 2 4 5 5 5 5
16 18 22 23 23 22 22 21 19 17 18 17 19 18 16 14 15 15 15 13 10 8 7 8 8 8 7 6 6 6 7 8 8 7 6 5 4 4 2 2 1 2 3 4
18 19 22 20 21 23 24 24 21 20 19 19 20 21 21 18 16 16 14 11 8 6 8 10 13 13 12 10 11 10 9 9 11 10 10 10 10 9 8 8 7 7 6 6
21 19 19 21 16 18 21 22 24 22 20 16 17 17 18 20 19 18 17 15 10 7 6 5 5 8 13 12 12 14 13 11 11 11 11 11 11 11 11 11 10 10 12 13
21 20 17 16 17 16 15 18 21 20 17 16 16 16 16 17 17 17 16 15 12 9 8 8 9 8 9 11 11 12 12 13 13 14 13 13 13 14 12 12 11 11 12 15
18 20 19 18 16 16 18 19 18 18 17 17 16 15 17 16 13 13 13 15 16 14 12 10 9 7 7 9 11 13 14 14 15 15 14 14 12 12 10 10 10 11 11 11
15 18 18 17 14 17 19 20 19 17 17 18 15 13 17 19 17 16 16 13 13 13 11 11 9 7 6 5 4 4 5 7 8 8 8 8 8 8 5 6 7 7 8 10
13 14 17 15 15 16 16 16 15 15 16 18 19 18 18 19 19 14 16 18 16 15 14 13 9 6 6 5 4 5 5 5 4 4 4 5 5 6 6 3 1 3 6 10
14 13 13 13 13 15 16 17 18 18 18 19 20 21 23 24 24 23 21 21 21 17 18 14 12 12 9 8 6 7 8 9 11 12 12 11 9 7 4 3 4 7 11 14
15 14 13 13 14 15 16 19 21 23 25 26 26 27 28 28 29 28 26 23 20 23 20 16 15 16 12 9 6 4 5 6 7 6 6 4 3 2 2 4 7 9 12 15

GFSNGP_850_spd_129.txt.gz
Wind_Speed
8 8 17 11 7 31 11 10 1 6 17 8 7 6 9 7 3 8 7 4 1 7 6 10 16 16 17 17 16 19 19 18 17 15 14 13 13 13 12 13 13 13 14 15
13 16 14 13 18 17 8 12 6 21 17 21 15 10 8 8 7 4 6 7 10 9 4 3 11 19 13 13 17 15 26 22 16 16 15 20 19 19 19 18 18 18 18 18
12 2 11 11 14 13 17 1 12 7 6 9 11 11 7 7 8 8 7 6 3 8 10 8 14 17 15 11 7 18 16 19 23 20 19 22 19 20 20 22 22 22 23 22
11 13 13 2 6 11 6 12 3 13 4 15 12 10 8 5 6 5 5 5 6 7 9 10 9 10 11 11 9 10 12 17 14 20 23 25 22 20 21 22 24 25 26 27
11 12 12 12 4 7 7 12 12 12 4 14 9 11 7 5 5 5 4 4 4 6 5 8 11 13 13 9 7 7 10 12 14 15 13 14 13 16 18 20 20 22 25 24
10 12 10 7 11 8 6 11 18 11 7 5 11 8 5 6 5 5 5 5 4 7 5 2 3 11 8 8 8 8 8 10 12 10 11 10 13 15 14 16 18 20 23 23
10 11 12 9 9 3 7 5 13 15 8 10 4 7 14 10 6 6 6 6 8 7 7 6 8 12 13 11 13 10 6 4 4 4 3 5 10 10 11 11 10 10 14 19
9 11 14 5 4 4 6 8 14 12 10 10 17 12 11 10 8 7 7 6 8 9 8 7 7 7 8 6 5 5 8 9 10 7 5 3 4 3 5 6 5 7 13 12
11 5 4 2 5 2 6 9 9 9 4 4 9 9 10 10 8 7 6 7 7 8 8 7 4 4 4 4 4 5 6 7 4 4 2 3 5 3 1 2 3 2 3 0
11 13 12 9 4 7 8 9 8 5 6 8 10 11 10 9 8 7 6 8 7 7 7 8 8 6 4 2 4 4 3 3 6 5 4 3 3 2 1 0 1 2 2 2
11 15 17 9 13 11 8 8 8 7 8 8 10 10 10 10 9 8 8 7 9 5 6 6 7 9 8 7 4 4 3 4 4 4 4 1 1 1 1 0 1 3 3 4
11 10 9 12 7 7 8 9 9 10 9 8 9 10 10 10 10 9 9 9 8 8 7 7 8 9 8 9 9 11 9 8 8 6 6 6 6 5 5 5 4 3 2 1
14 16 10 7 4 6 9 10 10 10 10 10 9 10 11 11 12 11 9 9 9 9 9 8 8 8 9 8 9 9 9 10 11 11 11 9 8 8 9 10 11 10 9 9
13 9 8 9 12 11 11 11 11 10 10 10 11 12 13 13 14 12 12 11 10 10 9 9 8 9 9 8 9 9 9 12 6 6 9 10 10 10 9 9 9 9 9 9
15 13 17 18 18 14 12 14 13 12 12 12 12 13 14 15 15 14 13 12 11 10 10 9 8 8 7 7 8 8 6 5 5 6 7 6 6 5 4 4 4 4 5 5
16 15 15 16 11 14 16 16 15 13 13 13 14 14 14 14 14 15 13 11 10 8 8 7 6 6 6 6 7 5 5 6 7 3 2 3 2 3 2 3 3 3 3 2
15 13 15 17 17 18 17 15 14 14 14 15 14 14 14 15 15 15 13 11 9 9 8 8 7 7 6 5 5 3 3 3 6 3 2 2 3 3 4 3 3 3 2 2
11 11 13 17 15 18 18 15 13 14 15 15 14 15 15 15 14 14 13 12 10 8 7 7 7 6 6 5 5 4 4 2 2 3 3 2 3 3 3 3 3 2 2 2
14 13 12 17 17 19 17 15 15 15 15 15 15 15 15 15 15 14 13 13 11 9 9 9 9 9 6 7 7 5 6 6 6 6 6 6 5 5 5 4 4 3 2 2
16 12 13 17 18 19 18 16 15 16 17 16 15 15 14 15 15 15 15 14 11 7 7 8 10 8 8 10 11 7 8 9 9 8 7 7 7 8 8 9 8 6 6 6
14 12 15 18 19 19 19 17 17 18 17 17 17 16 16 15 14 14 14 13 13 11 9 11 10 8 10 12 10 10 10 11 8 8 10 8 8 9 9 8 7 8 7 9
14 15 17 18 19 19 19 19 19 18 17 17 16 16 15 15 15 16 16 14 11 18 11 12 9 10 9 10 11 11 12 12 9 10 9 11 10 9 11 10 9 9 10 10
16 16 19 19 19 20 19 19 20 20 19 18 18 18 17 17 17 18 19 18 17 14 12 12 15 15 12 9 8 10 10 12 11 11 12 12 12 11 11 10 7 6 6 6
16 17 19 20 20 19 19 20 21 20 20 19 19 18 17 17 18 18 17 16 20 21 15 17 20 16 10 6 8 9 10 11 12 12 13 15 10 10 9 7 5 6 4 4
16 17 19 20 21 20 19 19 19 18 19 20 19 19 18 19 17 16 17 16 20 19 18 23 22 17 11 9 9 8 7 7 8 9 9 9 9 10 8 8 6 5 2 2
17 19 20 21 21 20 19 19 21 21 20 20 20 19 19 19 18 19 18 19 18 23 21 24 25 24 13 11 8 8 7 8 7 7 8 7 8 9 9 8 6 4 2 2
17 17 18 19 20 20 19 19 20 21 21 19 19 19 19 20 20 21 22 22 23 20 23 21 21 21 18 11 9 9 8 7 8 8 9 9 9 9 8 7 5 3 3 2

GFSNGP_850_spd_132.txt.gz
Wind_Speed
16 2 11 8 8 14 5 11 11 6 11 10 14 15 5 4 7 14 17 15 6 14 7 8 9 11 14 12 17 22 21 22 21 18 18 18 17 16 13 13 14 13 12 13
12 15 16 11 11 12 17 6 2 27 1 11 19 8 1 1 3 7 11 14 13 5 5 19 10 14 11 19 12 22 24 20 19 20 20 19 20 18 18 18 17 17 18 18
13 12 8 9 8 8 11 17 20 9 6 6 15 19 1 2 5 4 7 10 11 14 17 18 20 21 15 16 16 17 23 25 23 20 22 23 23 23 23 24 22 23 21 22
10 13 13 6 2 10 10 7 2 11 16 14 15 6 2 3 6 6 4 8 8 9 13 10 11 19 16 15 15 14 18 18 25 25 24 23 24 23 22 21 22 23 23 24
10 11 13 16 12 6 11 10 13 14 18 20 23 18 8 5 2 5 7 7 7 6 9 12 13 14 14 10 6 7 8 10 10 15 17 26 24 22 20 19 19 19 18 19
9 11 13 8 9 7 6 6 21 18 16 12 8 4 6 12 10 5 6 8 5 3 4 5 13 14 11 10 11 6 7 8 14 13 14 11 11 9 14 18 18 18 19 20
9 9 10 9 7 4 6 4 14 12 10 15 9 13 19 15 13 9 8 9 6 5 7 5 8 13 13 15 16 10 6 8 9 9 11 11 9 9 12 12 12 12 12 12
8 11 11 13 5 4 6 6 9 5 7 14 22 15 7 8 11 11 9 8 7 9 8 8 8 8 9 7 12 12 12 11 10 10 6 4 6 6 7 7 7 6 6 5
8 6 10 5 6 4 4 7 7 3 8 10 8 9 9 5 8 9 7 8 7 11 9 7 7 7 7 9 10 11 9 8 7 7 6 6 6 5 4 4 3 3 4 1
9 12 12 12 12 6 7 9 8 5 4 7 15 12 12 9 11 7 8 8 8 10 10 10 8 8 6 5 4 4 5 6 7 6 7 6 6 7 6 7 6 4 5 2
9 10 17 18 19 13 12 6 8 9 8 7 10 13 10 8 8 7 7 8 8 9 8 12 9 9 9 8 7 7 6 6 7 7 7 6 3 3 3 2 5 7 5 4
9 13 7 10 10 9 11 10 5 9 9 10 8 12 9 8 7 9 9 8 8 7 9 9 9 8 8 9 10 10 10 10 9 8 8 7 7 6 5 4 4 3 2 2
15 18 19 16 8 15 9 22 7 7 7 7 8 10 11 10 11 11 9 8 9 9 8 10 11 8 7 9 9 10 10 12 13 11 10 10 10 9 10 11 11 10 10 9
15 17 14 12 9 11 29 25 15 8 9 10 11 11 11 11 12 11 10 10 10 10 9 9 8 8 9 8 9 10 14 13 9 11 14 13 13 11 11 11 10 10 10 10
15 16 19 7 5 7 10 8 9 12 11 11 11 12 11 12 12 12 11 11 11 10 10 9 9 10 8 9 10 10 8 6 7 10 9 6 6 4 5 5 3 7 7 8
13 16 14 8 2 22 24 26 11 12 11 11 11 11 12 12 12 12 12 12 11 9 8 7 6 8 7 8 8 4 9 9 9 3 6 5 4 4 3 4 3 2 6 3
13 14 10 8 14 25 37 16 14 13 12 12 12 12 13 13 13 14 12 10 8 10 9 8 7 8 7 11 10 4 4 5 6 6 3 3 3 3 3 4 4 3 3 3
13 13 5 8 14 21 24 18 13 13 13 11 12 14 15 16 16 15 13 11 9 9 8 8 7 6 6 4 5 6 5 2 5 3 2 2 3 2 2 2 3 4 5 2
14 11 7 7 11 13 9 15 15 14 15 15 14 16 16 16 16 15 14 13 11 11 10 9 9 9 6 6 5 5 7 9 9 7 8 7 8 5 5 6 5 5 3 2
13 12 9 9 12 9 16 16 14 16 17 17 15 15 16 16 15 15 15 15 13 11 13 13 13 9 9 9 8 7 8 6 9 7 8 7 5 7 8 10 9 6 4 4
14 14 11 11 13 22 19 18 16 19 18 16 17 16 15 15 16 16 16 16 15 11 7 11 10 8 11 11 10 7 10 9 7 8 7 7 10 9 7 4 9 7 8 12
14 13 12 15 16 18 19 17 16 19 18 19 19 17 17 16 17 17 16 16 13 18 16 13 11 11 10 5 8 10 11 11 11 12 12 13 14 11 12 12 12 3 3 5
14 13 15 17 16 16 18 18 19 22 22 22 21 20 20 19 19 20 21 18 17 12 17 14 13 14 11 9 9 7 8 8 5 8 11 12 12 11 12 14 11 9 8 7
14 14 16 16 17 18 19 19 20 24 25 24 24 21 20 20 18 20 21 20 21 21 18 17 17 18 14 10 8 8 10 10 12 11 12 7 6 9 15 15 11 6 8 5
13 15 16 18 19 18 17 17 18 15 24 25 23 23 20 19 21 17 18 18 21 23 21 22 20 20 18 15 9 10 9 9 9 11 10 9 10 10 8 7 9 9 6 4
14 15 17 19 20 19 21 19 20 20 21 22 22 22 22 21 20 20 17 18 22 23 22 25 25 25 20 13 10 8 7 8 10 10 9 8 7 8 10 9 10 7 7 5
16 16 16 18 20 20 20 20 21 21 23 22 22 21 20 19 19 20 19 20 21 22 22 28 26 24 23 20 20 14 10 10 7 7 8 7 10 10 9 7 8 10 9 6

GFSNGP_850_spd_135.txt.gz
Wind_Speed
10 8 6 8 9 11 7 6 6 3 4 4 5 10 22 14 9 9 6 4 14 18 19 9 8 6 18 37 32 28 27 27 21 18 18 18 19 18 17 18 18 18 15 12
6 9 7 6 13 13 12 4 2 4 5 6 6 10 10 12 7 8 8 3 6 11 23 13 23 21 19 28 31 23 25 35 24 21 19 18 18 19 18 18 17 15 14 13
5 8 8 6 3 1 8 8 6 3 3 9 6 4 13 14 8 1 3 4 8 10 11 11 12 18 28 15 23 29 31 28 28 27 25 19 20 20 20 18 18 18 18 18
4 7 5 8 7 3 13 7 4 4 4 9 7 9 13 7 9 3 2 5 12 16 15 17 19 26 23 21 20 18 25 21 24 28 24 21 21 20 18 19 20 23 24 23
3 4 8 10 8 6 8 8 8 8 7 6 12 12 8 7 4 3 2 3 6 10 17 18 18 12 9 7 18 17 16 15 12 8 16 19 21 20 20 17 20 20 19 20
1 3 4 1 8 10 5 4 12 16 13 11 6 3 2 5 6 5 3 2 5 6 8 13 14 9 6 4 10 7 3 3 7 12 12 17 19 21 21 15 14 17 17 18
4 4 4 6 11 7 3 3 18 17 15 17 6 7 16 12 6 3 0 1 5 7 4 3 8 13 11 8 9 7 6 6 7 13 10 12 13 10 8 10 10 10 10 9
1 3 3 6 9 5 4 10 17 20 21 18 21 22 17 11 8 2 6 2 2 2 2 1 1 9 10 13 13 12 12 11 11 10 10 8 8 7 8 6 3 3 3 3
4 4 6 7 7 6 7 4 9 22 26 25 25 24 16 17 14 15 10 6 3 3 3 1 3 5 8 9 11 9 10 7 6 8 8 7 6 7 7 6 5 4 3 2
2 2 6 6 4 7 8 7 5 3 24 24 21 18 20 20 18 17 11 7 4 2 4 4 4 6 6 6 6 9 7 8 8 8 8 8 7 7 5 5 6 6 6 5
3 7 6 8 4 2 5 10 9 2 16 19 27 22 23 23 17 14 12 10 7 4 4 6 4 8 8 8 10 9 9 8 8 9 8 7 7 7 8 9 7 4 3 1
3 1 3 4 3 2 4 4 7 6 10 21 18 24 22 20 21 15 13 11 10 8 6 5 5 7 10 9 8 9 10 10 10 11 11 8 7 8 8 8 7 5 4 2
4 10 8 11 8 6 6 7 13 17 6 25 26 25 19 17 12 16 12 12 11 11 10 8 9 8 6 9 11 11 11 10 11 10 10 11 11 10 10 13 13 12 11 11
13 13 10 10 4 6 3 4 5 6 5 3 16 18 16 14 15 14 12 11 13 11 11 9 10 9 10 12 12 15 16 16 16 15 14 16 15 13 13 13 14 15 14 12
10 12 13 7 9 11 6 4 14 7 13 17 12 13 12 10 15 14 12 12 11 12 11 9 13 11 10 17 18 15 11 9 9 10 11 10 8 10 10 12 11 11 12 13
9 17 9 13 15 7 4 15 6 15 24 18 16 12 6 12 14 16 15 15 17 14 11 11 13 13 11 13 8 7 11 10 12 9 12 11 5 9 6 5 8 8 9 8
9 14 7 14 10 1 6 17 18 10 18 17 15 16 15 16 15 13 15 12 11 8 9 7 7 12 12 17 11 8 9 13 10 8 7 7 6 7 7 5 8 7 5 7
13 15 10 6 15 9 10 19 15 7 22 19 18 16 15 19 16 17 14 11 13 13 11 8 7 9 16 15 10 8 5 10 12 9 6 7 6 5 9 5 4 4 3 4
12 13 11 9 14 11 15 27 17 8 19 18 19 19 21 19 16 18 16 15 11 13 11 9 5 8 11 12 11 13 6 9 9 12 6 6 7 9 8 6 6 4 2 2
13 15 12 13 16 13 15 17 22 29 20 17 18 19 20 19 19 19 18 16 14 15 13 13 7 7 10 9 10 10 8 6 6 16 12 7 4 6 11 7 7 6 4 2
11 17 14 14 15 16 25 21 31 24 22 19 19 18 19 19 18 17 17 18 16 14 11 14 10 5 6 8 9 4 5 6 4 8 17 10 9 10 10 11 15 13 9 7
12 13 15 14 17 24 25 22 29 26 25 24 19 15 15 18 19 18 15 15 15 15 16 13 15 12 11 8 9 6 4 5 7 11 14 16 14 13 13 12 11 13 12 13
13 15 13 15 17 28 28 26 27 26 26 22 22 20 18 16 18 20 21 18 17 12 19 18 13 13 13 12 12 12 11 8 9 8 11 11 10 12 14 12 9 8 9 8
13 14 14 14 17 21 30 27 24 23 21 20 19 20 20 20 18 20 20 13 18 21 23 19 21 17 19 14 10 17 21 17 13 11 11 9 8 12 9 10 11 10 9 9
8 17 16 17 17 20 20 23 24 25 24 25 23 23 23 21 20 20 21 23 23 24 24 22 22 19 21 20 18 14 16 16 15 16 16 14 11 12 12 9 13 14 16 14
11 14 17 18 18 18 19 19 21 18 21 30 29 27 26 24 22 18 17 18 14 22 28 27 25 24 25 24 23 22 19 16 13 12 11 12 10 11 13 12 19 20 16 13
15 15 15 17 20 20 22 24 26 25 23 22 29 29 28 25 23 22 22 18 20 18 28 27 27 25 26 25 24 23 20 14 9 11 7 13 10 11 14 14 17 17 15 13

GFSNGP_850_spd_138.txt.gz
Wind_Speed
5 6 5 2 5 7 8 6 5 3 8 11 13 12 12 8 4 3 3 2 7 13 10 9 5 23 28 38 36 38 33 29 22 19 20 20 21 24 22 20 17 17 17 15
5 7 4 5 10 12 10 5 5 4 1 3 2 10 13 13 9 6 2 2 3 9 15 22 7 4 15 17 37 37 35 30 23 21 20 22 24 25 20 22 21 19 18 16
3 5 6 5 5 4 4 5 8 5 5 8 5 6 9 11 8 9 7 5 6 10 9 13 23 27 5 9 17 35 22 33 29 27 24 23 23 24 23 22 22 22 21 20
3 4 1 7 8 5 10 6 3 8 4 7 12 11 10 4 3 4 5 4 6 6 9 7 3 8 16 10 13 24 34 27 33 34 31 28 26 25 26 24 25 24 23 23
4 3 5 8 1 3 8 3 1 8 9 14 19 13 6 6 5 4 5 2 3 8 12 13 9 7 3 6 11 13 28 33 25 29 31 31 30 26 23 24 24 23 25 24
3 3 3 5 3 23 10 2 5 11 14 17 13 2 4 14 9 9 8 6 4 4 10 15 14 7 3 5 7 11 24 31 31 21 23 30 25 25 25 24 23 23 25 19
2 3 6 5 8 4 5 7 12 12 15 22 6 14 11 14 11 9 9 6 4 4 4 8 9 8 9 7 6 8 17 14 7 5 9 10 15 17 19 19 16 13 13 11
2 2 5 4 4 5 6 13 19 20 18 21 21 14 18 15 12 10 6 4 2 2 3 3 5 8 12 9 10 6 6 6 9 11 12 11 11 9 8 7 8 12 9 7
6 6 7 6 10 16 19 22 25 21 20 20 21 22 22 19 15 10 7 3 1 1 3 4 5 7 9 10 11 11 13 8 5 7 13 10 9 9 9 10 11 10 8 7
3 5 4 9 12 15 19 16 16 16 19 19 20 21 19 15 15 14 9 6 3 1 2 3 6 7 8 9 11 10 6 6 8 7 8 9 9 10 9 10 9 8 7 7
2 4 7 6 3 8 9 8 14 15 18 22 18 16 11 14 17 12 8 5 3 1 1 1 2 6 7 8 8 7 8 8 9 9 9 8 9 9 7 6 5 4 6 4
4 3 2 1 3 5 9 13 12 13 19 19 16 17 10 14 17 12 9 6 6 4 3 2 3 5 6 6 7 7 9 10 9 10 11 10 9 9 9 7 6 5 4 2
6 5 4 4 8 9 11 11 9 7 13 17 18 15 14 20 18 15 10 10 8 6 4 2 4 5 7 8 8 7 7 10 12 10 10 9 9 8 9 11 10 9 11 13
4 3 5 11 10 15 13 11 8 8 8 14 15 14 17 16 17 15 13 11 11 10 8 6 5 5 8 9 13 13 12 11 10 12 13 13 13 13 12 12 14 16 16 15
9 7 8 10 14 17 17 16 13 9 8 11 18 15 15 18 17 17 14 11 13 11 10 8 8 8 8 12 15 16 15 15 15 17 17 16 16 16 14 13 12 13 13 13
12 8 9 11 18 19 17 19 16 14 18 17 16 18 15 11 19 18 14 15 14 15 12 11 13 16 16 12 8 9 10 10 12 11 12 11 10 10 11 12 12 13 11 9
14 9 12 17 20 19 16 16 12 19 20 18 19 19 14 15 18 17 16 13 12 11 11 13 13 16 17 11 9 11 8 10 13 11 6 6 8 7 10 10 7 7 9 7
25 23 17 15 21 17 14 17 16 16 23 21 24 22 17 16 22 19 16 17 17 12 10 7 9 14 17 15 12 9 10 12 13 11 10 9 9 7 10 9 8 5 4 5
22 19 18 16 17 15 13 22 20 20 21 21 22 20 16 12 14 21 20 18 18 16 10 8 8 12 20 16 11 10 9 15 13 14 11 10 12 10 10 8 7 6 6 6
15 15 17 15 14 12 18 19 21 24 23 24 21 21 19 19 15 21 19 19 16 10 10 10 7 11 18 18 13 9 8 9 9 14 14 10 10 15 15 13 11 11 12 11
13 15 19 16 13 9 9 17 26 21 25 25 25 21 18 18 15 19 19 19 16 11 13 11 9 7 9 13 15 11 12 13 9 7 20 18 14 11 15 16 13 13 13 11
11 14 22 18 14 10 15 18 19 21 25 23 13 12 18 19 17 18 15 17 18 16 16 15 13 14 11 8 9 11 11 11 12 9 9 20 19 18 17 16 17 14 16 13
9 16 18 17 15 13 21 24 18 25 29 23 17 18 17 19 21 21 22 19 14 19 18 17 16 18 17 14 13 14 14 10 9 10 12 15 20 17 17 15 12 13 16 16
10 13 15 11 13 18 26 27 25 28 26 19 18 17 17 17 19 18 15 12 20 23 19 17 19 17 17 15 14 15 20 18 15 12 12 16 18 17 17 16 16 15 16 16
4 16 16 16 17 18 26 28 27 30 25 23 22 20 19 19 20 17 19 21 21 20 22 22 21 21 22 21 22 19 14 20 22 20 18 18 19 19 20 18 16 17 20 19
4 6 19 18 16 15 24 30 32 30 29 30 27 25 23 24 23 23 22 21 22 21 29 25 26 26 28 25 25 24 23 19 16 16 13 12 14 19 18 17 17 19 21 20
13 8 12 19 19 19 19 27 32 32 30 30 30 28 28 28 27 26 24 25 25 24 21 19 29 31 29 28 27 27 25 23 20 17 11 11 12 17 14 15 19 19 22 20